Time,TemperatureF,DewpointF,PressureIn,WindDirection,WindDirectionDegrees,WindSpeedMPH,WindSpeedGustMPH,Humidity,HourlyPrecipIn,Conditions,Clouds,dailyrainin,SolarRadiationWatts/m^2,SoftwareType,DateUTC
2014-07-23 00:04:00,66.0,42.9,30.15,NNW,336,0.0,0.0,43,0.00,,,0.00,0,Wunderground v.1.15,2014-07-23 05:04:00,
2014-07-23 00:05:00,66.0,43.5,30.15,NNW,336,0.0,0.0,44,0.00,,,0.00,0,Wunderground v.1.15,2014-07-23 05:05:00,
2014-07-23 00:06:00,66.0,43.5,30.15,NNW,336,0.0,0.0,44,0.00,,,0.00,0,Wunderground v.1.15,2014-07-23 05:06:00,
2014-07-23 00:07:00,65.9,43.4,30.15,NNW,336,0.0,0.0,44,0.00,,,0.00,0,Wunderground v.1.15,2014-07-23 05:07:00,
2014-07-23 00:09:00,65.9,43.4,30.14,NNW,336,0.0,0.0,44,0.00,,,0.00,0,Wunderground v.1.15,2014-07-23 05:09:00,
2014-07-23 00:10:00,65.9,43.4,30.15,NNW,336,0.0,0.0,44,0.00,,,0.00,0,Wunderground v.1.15,2014-07-23 05:10:00,
2014-07-23 00:11:00,65.9,43.4,30.15,NNW,336,0.0,0.0,44,0.00,,,0.00,0,Wunderground v.1.15,2014-07-23 05:11:00,
2014-07-23 00:12:00,65.9,43.4,30.15,NNW,336,0.0,0.0,44,0.00,,,0.00,0,Wunderground v.1.15,2014-07-23 05:12:00,
2014-07-23 00:13:00,65.9,43.4,30.15,NNW,336,0.0,0.0,44,0.00,,,0.00,0,Wunderground v.1.15,2014-07-23 05:13:00,
2014-07-23 00:17:00,65.9,43.4,30.15,NNW,336,0.0,0.0,44,0.00,,,0.00,0,Wunderground v.1.15,2014-07-23 05:17:00,
2014-07-23 00:18:00,65.9,43.4,30.15,NNW,336,0.0,0.0,44,0.00,,,0.00,0,Wunderground v.1.15,2014-07-23 05:18:00,
2014-07-23 00:21:00,65.9,43.4,30.14,NNW,336,0.0,0.0,44,0.00,,,0.00,0,Wunderground v.1.15,2014-07-23 05:21:00,
2014-07-23 00:23:00,65.8,43.3,30.15,NNW,336,0.0,0.0,44,0.00,,,0.00,0,Wunderground v.1.15,2014-07-23 05:23:00,
2014-07-23 00:28:00,65.7,43.2,30.15,NNW,336,0.0,2.0,44,0.00,,,0.00,0,Wunderground v.1.15,2014-07-23 05:28:00,
2014-07-23 00:29:00,65.7,43.2,30.15,NNW,336,0.0,2.0,44,0.00,,,0.00,0,Wunderground v.1.15,2014-07-23 05:29:00,
2014-07-23 00:30:00,65.7,43.2,30.15,NNW,336,0.0,0.0,44,0.00,,,0.00,0,Wunderground v.1.15,2014-07-23 05:30:00,
2014-07-23 00:31:00,65.7,43.2,30.15,NNW,336,0.0,0.0,44,0.00,,,0.00,0,Wunderground v.1.15,2014-07-23 05:31:00,
2014-07-23 00:34:00,65.6,43.7,30.14,NNW,336,1.0,1.0,45,0.00,,,0.00,0,Wunderground v.1.15,2014-07-23 05:34:00,
2014-07-23 00:35:00,65.6,43.7,30.15,NNW,336,0.0,1.0,45,0.00,,,0.00,0,Wunderground v.1.15,2014-07-23 05:35:00,
2014-07-23 00:37:00,65.5,43.6,30.15,NNW,336,0.0,1.0,45,0.00,,,0.00,0,Wunderground v.1.15,2014-07-23 05:37:00,
2014-07-23 00:40:00,65.5,43.6,30.15,NNW,336,0.0,0.0,45,0.00,,,0.00,0,Wunderground v.1.15,2014-07-23 05:40:00,
2014-07-23 00:41:00,65.5,43.6,30.15,NNW,336,0.0,0.0,45,0.00,,,0.00,0,Wunderground v.1.15,2014-07-23 05:41:00,
2014-07-23 00:42:00,65.5,43.6,30.15,NNW,336,0.0,0.0,45,0.00,,,0.00,0,Wunderground v.1.15,2014-07-23 05:42:00,
2014-07-23 00:43:00,65.4,43.5,30.15,NNW,336,0.0,0.0,45,0.00,,,0.00,0,Wunderground v.1.15,2014-07-23 05:43:00,
2014-07-23 00:44:00,65.4,43.5,30.15,NNW,336,0.0,0.0,45,0.00,,,0.00,0,Wunderground v.1.15,2014-07-23 05:44:00,
2014-07-23 00:45:00,65.4,43.5,30.15,NNW,336,0.0,0.0,45,0.00,,,0.00,0,Wunderground v.1.15,2014-07-23 05:45:00,
2014-07-23 00:46:00,65.4,43.5,30.14,NNW,336,0.0,0.0,45,0.00,,,0.00,0,Wunderground v.1.15,2014-07-23 05:46:00,
2014-07-23 00:52:00,65.2,43.3,30.15,NNW,336,0.0,0.0,45,0.00,,,0.00,0,Wunderground v.1.15,2014-07-23 05:52:00,
2014-07-23 00:54:00,65.1,43.2,30.16,NNW,336,0.0,0.0,45,0.00,,,0.00,0,Wunderground v.1.15,2014-07-23 05:54:00,
2014-07-23 00:55:00,65.1,43.2,30.16,NNW,336,0.0,0.0,45,0.00,,,0.00,0,Wunderground v.1.15,2014-07-23 05:55:00,
2014-07-23 00:56:00,65.0,43.7,30.15,NNW,336,0.0,0.0,46,0.00,,,0.00,0,Wunderground v.1.15,2014-07-23 05:56:00,
2014-07-23 00:59:00,64.8,43.5,30.16,NNW,336,0.0,0.0,46,0.00,,,0.00,0,Wunderground v.1.15,2014-07-23 05:59:00,
2014-07-23 01:00:00,64.8,43.5,30.16,NNW,336,0.0,0.0,46,0.00,,,0.00,0,Wunderground v.1.15,2014-07-23 06:00:00,
2014-07-23 01:01:00,64.7,43.4,30.16,NNW,336,0.0,0.0,46,0.00,,,0.00,0,Wunderground v.1.15,2014-07-23 06:01:00,
2014-07-23 01:02:00,64.7,44.0,30.15,NNW,336,0.0,0.0,47,0.00,,,0.00,0,Wunderground v.1.15,2014-07-23 06:02:00,
2014-07-23 01:06:00,64.5,44.4,30.16,NNW,336,0.0,0.0,48,0.00,,,0.00,0,Wunderground v.1.15,2014-07-23 06:06:00,
2014-07-23 01:07:00,64.4,43.7,30.16,NNW,336,0.0,0.0,47,0.00,,,0.00,0,Wunderground v.1.15,2014-07-23 06:07:00,
2014-07-23 01:09:00,64.4,44.3,30.16,NNW,336,0.0,0.0,48,0.00,,,0.00,0,Wunderground v.1.15,2014-07-23 06:09:00,
2014-07-23 01:12:00,64.3,44.2,30.16,NNW,336,0.0,0.0,48,0.00,,,0.00,0,Wunderground v.1.15,2014-07-23 06:12:00,
2014-07-23 01:14:00,64.2,44.6,30.16,NNW,336,0.0,0.0,49,0.00,,,0.00,0,Wunderground v.1.15,2014-07-23 06:14:00,
2014-07-23 01:16:00,64.2,44.6,30.16,NNW,336,0.0,0.0,49,0.00,,,0.00,0,Wunderground v.1.15,2014-07-23 06:16:00,
2014-07-23 01:17:00,64.1,44.5,30.15,NNW,336,0.0,0.0,49,0.00,,,0.00,0,Wunderground v.1.15,2014-07-23 06:17:00,
2014-07-23 01:18:00,64.0,44.4,30.15,NNW,336,0.0,0.0,49,0.00,,,0.00,0,Wunderground v.1.15,2014-07-23 06:18:00,
2014-07-23 01:19:00,64.0,44.4,30.16,NNW,336,0.0,0.0,49,0.00,,,0.00,0,Wunderground v.1.15,2014-07-23 06:19:00,
2014-07-23 01:24:00,63.7,44.7,30.16,NNW,336,0.0,0.0,50,0.00,,,0.00,0,Wunderground v.1.15,2014-07-23 06:24:00,
2014-07-23 01:25:00,63.6,45.1,30.16,NNW,336,0.0,0.0,51,0.00,,,0.00,0,Wunderground v.1.15,2014-07-23 06:25:00,
2014-07-23 01:26:00,63.6,45.1,30.16,NNW,336,0.0,0.0,51,0.00,,,0.00,0,Wunderground v.1.15,2014-07-23 06:26:00,
2014-07-23 01:27:00,63.5,45.6,30.16,NNW,336,0.0,0.0,52,0.00,,,0.00,0,Wunderground v.1.15,2014-07-23 06:27:00,
2014-07-23 01:30:00,63.2,46.3,30.15,NNW,336,0.0,0.0,54,0.00,,,0.00,0,Wunderground v.1.15,2014-07-23 06:30:00,
2014-07-23 01:31:00,63.1,46.7,30.16,NNW,336,0.0,0.0,55,0.00,,,0.00,0,Wunderground v.1.15,2014-07-23 06:31:00,
2014-07-23 01:32:00,63.0,47.5,30.16,NNW,336,0.0,0.0,57,0.00,,,0.00,0,Wunderground v.1.15,2014-07-23 06:32:00,
2014-07-23 01:34:00,62.8,48.7,30.16,NNW,336,0.0,0.0,60,0.00,,,0.00,0,Wunderground v.1.15,2014-07-23 06:34:00,
2014-07-23 01:37:00,62.5,50.6,30.16,NNW,336,0.0,0.0,65,0.00,,,0.00,0,Wunderground v.1.15,2014-07-23 06:37:00,
2014-07-23 01:38:00,62.4,51.7,30.16,NNW,336,0.0,0.0,68,0.00,,,0.00,0,Wunderground v.1.15,2014-07-23 06:38:00,
2014-07-23 01:40:00,62.2,53.1,30.16,NNW,336,0.0,0.0,72,0.00,,,0.00,0,Wunderground v.1.15,2014-07-23 06:40:00,
2014-07-23 01:42:00,62.1,54.1,30.16,NNW,336,0.0,0.0,75,0.00,,,0.00,0,Wunderground v.1.15,2014-07-23 06:42:00,
2014-07-23 01:43:00,62.0,54.7,30.16,NNW,336,0.0,0.0,77,0.00,,,0.00,0,Wunderground v.1.15,2014-07-23 06:43:00,
2014-07-23 01:47:00,61.7,55.1,30.16,NNW,336,0.0,0.0,79,0.00,,,0.00,0,Wunderground v.1.15,2014-07-23 06:47:00,
2014-07-23 01:49:00,61.6,55.4,30.16,NNW,336,0.0,0.0,80,0.00,,,0.00,0,Wunderground v.1.15,2014-07-23 06:49:00,
2014-07-23 01:51:00,61.6,55.4,30.16,NNW,336,0.0,0.0,80,0.00,,,0.00,0,Wunderground v.1.15,2014-07-23 06:51:00,
2014-07-23 01:52:00,61.7,55.8,30.16,NNW,336,0.0,0.0,81,0.00,,,0.00,0,Wunderground v.1.15,2014-07-23 06:52:00,
2014-07-23 01:55:00,61.7,55.8,30.16,NNW,336,0.0,0.0,81,0.00,,,0.00,0,Wunderground v.1.15,2014-07-23 06:55:00,
2014-07-23 01:56:00,61.7,55.8,30.16,NNW,336,0.0,0.0,81,0.00,,,0.00,0,Wunderground v.1.15,2014-07-23 06:56:00,
2014-07-23 01:58:00,61.7,56.1,30.16,NNW,336,0.0,0.0,82,0.00,,,0.00,0,Wunderground v.1.15,2014-07-23 06:58:00,
2014-07-23 01:59:00,61.7,56.1,30.16,NNW,336,0.0,0.0,82,0.00,,,0.00,0,Wunderground v.1.15,2014-07-23 06:59:00,
2014-07-23 02:00:00,61.7,56.1,30.17,NNW,336,0.0,0.0,82,0.00,,,0.00,0,Wunderground v.1.15,2014-07-23 07:00:00,
2014-07-23 02:01:00,61.7,56.1,30.17,NNW,336,0.0,0.0,82,0.00,,,0.00,0,Wunderground v.1.15,2014-07-23 07:01:00,
2014-07-23 02:03:00,61.7,56.1,30.16,NNW,336,0.0,0.0,82,0.00,,,0.00,0,Wunderground v.1.15,2014-07-23 07:03:00,
2014-07-23 02:04:00,61.7,56.1,30.16,NNW,336,0.0,0.0,82,0.00,,,0.00,0,Wunderground v.1.15,2014-07-23 07:04:00,
2014-07-23 02:05:00,61.7,56.1,30.16,NNW,336,0.0,0.0,82,0.00,,,0.00,0,Wunderground v.1.15,2014-07-23 07:05:00,
2014-07-23 02:06:00,61.7,56.1,30.17,NNW,336,0.0,0.0,82,0.00,,,0.00,0,Wunderground v.1.15,2014-07-23 07:06:00,
2014-07-23 02:07:00,61.7,56.1,30.16,NNW,336,0.0,0.0,82,0.00,,,0.00,0,Wunderground v.1.15,2014-07-23 07:07:00,
2014-07-23 02:08:00,61.8,56.2,30.16,NNW,336,0.0,0.0,82,0.00,,,0.00,0,Wunderground v.1.15,2014-07-23 07:08:00,
2014-07-23 02:09:00,61.8,56.2,30.17,NNW,336,0.0,0.0,82,0.00,,,0.00,0,Wunderground v.1.15,2014-07-23 07:09:00,
2014-07-23 02:10:00,61.8,56.2,30.17,NNW,336,0.0,0.0,82,0.00,,,0.00,0,Wunderground v.1.15,2014-07-23 07:10:00,
2014-07-23 02:11:00,61.8,56.2,30.17,NNW,336,0.0,0.0,82,0.00,,,0.00,0,Wunderground v.1.15,2014-07-23 07:11:00,
2014-07-23 02:12:00,61.8,56.2,30.17,NNW,336,0.0,0.0,82,0.00,,,0.00,0,Wunderground v.1.15,2014-07-23 07:12:00,
2014-07-23 02:15:00,61.8,56.2,30.17,NNW,336,0.0,0.0,82,0.00,,,0.00,0,Wunderground v.1.15,2014-07-23 07:15:00,
2014-07-23 02:16:00,61.8,56.2,30.17,NNW,336,0.0,0.0,82,0.00,,,0.00,0,Wunderground v.1.15,2014-07-23 07:16:00,
2014-07-23 02:17:00,61.8,56.2,30.17,NNW,336,0.0,0.0,82,0.00,,,0.00,0,Wunderground v.1.15,2014-07-23 07:17:00,
2014-07-23 02:20:00,61.8,56.2,30.17,NNW,336,0.0,0.0,82,0.00,,,0.00,0,Wunderground v.1.15,2014-07-23 07:20:00,
2014-07-23 02:21:00,61.9,56.3,30.17,NNW,336,0.0,0.0,82,0.00,,,0.00,0,Wunderground v.1.15,2014-07-23 07:21:00,
2014-07-23 02:22:00,61.9,56.3,30.17,NNW,336,0.0,0.0,82,0.00,,,0.00,0,Wunderground v.1.15,2014-07-23 07:22:00,
2014-07-23 02:23:00,61.9,56.3,30.17,NNW,336,0.0,0.0,82,0.00,,,0.00,0,Wunderground v.1.15,2014-07-23 07:23:00,
2014-07-23 02:25:00,61.9,56.3,30.17,NNW,336,0.0,0.0,82,0.00,,,0.00,0,Wunderground v.1.15,2014-07-23 07:25:00,
2014-07-23 02:26:00,61.9,56.3,30.17,NNW,336,0.0,0.0,82,0.00,,,0.00,0,Wunderground v.1.15,2014-07-23 07:26:00,
2014-07-23 02:27:00,61.9,56.3,30.17,NNW,336,0.0,0.0,82,0.00,,,0.00,0,Wunderground v.1.15,2014-07-23 07:27:00,
2014-07-23 02:29:00,61.9,56.3,30.17,NNW,336,0.0,0.0,82,0.00,,,0.00,0,Wunderground v.1.15,2014-07-23 07:29:00,
2014-07-23 02:30:00,61.9,56.3,30.17,NNW,336,0.0,0.0,82,0.00,,,0.00,0,Wunderground v.1.15,2014-07-23 07:30:00,
2014-07-23 02:31:00,61.9,56.3,30.17,NNW,336,0.0,0.0,82,0.00,,,0.00,0,Wunderground v.1.15,2014-07-23 07:31:00,
2014-07-23 02:32:00,61.9,56.3,30.17,NNW,336,0.0,0.0,82,0.00,,,0.00,0,Wunderground v.1.15,2014-07-23 07:32:00,
2014-07-23 02:33:00,61.9,56.3,30.17,NNW,336,0.0,0.0,82,0.00,,,0.00,0,Wunderground v.1.15,2014-07-23 07:33:00,
2014-07-23 02:34:00,61.8,56.2,30.16,NNW,336,0.0,0.0,82,0.00,,,0.00,0,Wunderground v.1.15,2014-07-23 07:34:00,
2014-07-23 02:35:00,61.8,56.2,30.16,NNW,336,0.0,0.0,82,0.00,,,0.00,0,Wunderground v.1.15,2014-07-23 07:35:00,
2014-07-23 02:36:00,61.8,56.2,30.16,NNW,336,0.0,0.0,82,0.00,,,0.00,0,Wunderground v.1.15,2014-07-23 07:36:00,
2014-07-23 02:37:00,61.8,56.2,30.17,NNW,336,0.0,0.0,82,0.00,,,0.00,0,Wunderground v.1.15,2014-07-23 07:37:00,
2014-07-23 02:38:00,61.8,56.2,30.16,NNW,336,0.0,0.0,82,0.00,,,0.00,0,Wunderground v.1.15,2014-07-23 07:38:00,
2014-07-23 02:39:00,61.9,56.3,30.16,NNW,336,0.0,0.0,82,0.00,,,0.00,0,Wunderground v.1.15,2014-07-23 07:39:00,
2014-07-23 02:40:00,61.9,56.3,30.16,NNW,336,0.0,0.0,82,0.00,,,0.00,0,Wunderground v.1.15,2014-07-23 07:40:00,
2014-07-23 02:41:00,61.9,56.3,30.17,NNW,336,0.0,0.0,82,0.00,,,0.00,0,Wunderground v.1.15,2014-07-23 07:41:00,
2014-07-23 02:42:00,61.9,56.3,30.16,NNW,336,0.0,0.0,82,0.00,,,0.00,0,Wunderground v.1.15,2014-07-23 07:42:00,
2014-07-23 02:43:00,61.9,56.3,30.17,NNW,336,0.0,0.0,82,0.00,,,0.00,0,Wunderground v.1.15,2014-07-23 07:43:00,
2014-07-23 02:44:00,62.0,56.1,30.16,NNW,336,0.0,2.0,81,0.00,,,0.00,0,Wunderground v.1.15,2014-07-23 07:44:00,
2014-07-23 02:46:00,62.0,56.1,30.16,NNW,336,0.0,2.0,81,0.00,,,0.00,0,Wunderground v.1.15,2014-07-23 07:46:00,
2014-07-23 02:47:00,62.0,56.1,30.16,NNW,336,0.0,2.0,81,0.00,,,0.00,0,Wunderground v.1.15,2014-07-23 07:47:00,
2014-07-23 02:49:00,62.1,56.2,30.16,NNW,336,0.0,2.0,81,0.00,,,0.00,0,Wunderground v.1.15,2014-07-23 07:49:00,
2014-07-23 02:50:00,62.1,56.2,30.16,NNW,336,0.0,0.0,81,0.00,,,0.00,0,Wunderground v.1.15,2014-07-23 07:50:00,
2014-07-23 02:51:00,62.1,56.2,30.16,NNW,336,0.0,0.0,81,0.00,,,0.00,0,Wunderground v.1.15,2014-07-23 07:51:00,
2014-07-23 02:52:00,62.2,56.3,30.16,NNW,336,0.0,2.0,81,0.00,,,0.00,0,Wunderground v.1.15,2014-07-23 07:52:00,
2014-07-23 02:53:00,62.2,56.3,30.16,NNW,336,1.0,2.0,81,0.00,,,0.00,0,Wunderground v.1.15,2014-07-23 07:53:00,
2014-07-23 02:54:00,62.2,56.3,30.16,NNW,336,0.0,2.0,81,0.00,,,0.00,0,Wunderground v.1.15,2014-07-23 07:54:00,
2014-07-23 02:55:00,62.3,56.4,30.16,NNW,336,0.0,2.0,81,0.00,,,0.00,0,Wunderground v.1.15,2014-07-23 07:55:00,
2014-07-23 02:56:00,62.3,56.4,30.16,NNW,336,0.0,2.0,81,0.00,,,0.00,0,Wunderground v.1.15,2014-07-23 07:56:00,
2014-07-23 02:57:00,62.3,56.0,30.16,NNW,336,0.0,2.0,80,0.00,,,0.00,0,Wunderground v.1.15,2014-07-23 07:57:00,
2014-07-23 02:58:00,62.3,56.0,30.16,NNW,336,0.0,2.0,80,0.00,,,0.00,0,Wunderground v.1.15,2014-07-23 07:58:00,
2014-07-23 02:59:00,62.4,56.1,30.16,NNW,336,0.0,2.0,80,0.00,,,0.00,0,Wunderground v.1.15,2014-07-23 07:59:00,
2014-07-23 03:01:00,62.4,56.1,30.17,NNW,336,0.0,1.0,80,0.00,,,0.00,0,Wunderground v.1.15,2014-07-23 08:01:00,
2014-07-23 03:02:00,62.5,56.2,30.16,NNW,336,0.0,1.0,80,0.00,,,0.00,0,Wunderground v.1.15,2014-07-23 08:02:00,
2014-07-23 03:03:00,62.5,56.2,30.16,NNW,336,0.0,1.0,80,0.00,,,0.00,0,Wunderground v.1.15,2014-07-23 08:03:00,
2014-07-23 03:04:00,62.5,56.2,30.16,NNW,336,0.0,1.0,80,0.00,,,0.00,0,Wunderground v.1.15,2014-07-23 08:04:00,
2014-07-23 03:06:00,62.5,56.2,30.16,NNW,336,0.0,1.0,80,0.00,,,0.00,0,Wunderground v.1.15,2014-07-23 08:06:00,
2014-07-23 03:07:00,62.4,56.1,30.16,NNW,336,0.0,1.0,80,0.00,,,0.00,0,Wunderground v.1.15,2014-07-23 08:07:00,
2014-07-23 03:08:00,62.4,56.1,30.16,NNW,336,0.0,1.0,80,0.00,,,0.00,0,Wunderground v.1.15,2014-07-23 08:08:00,
2014-07-23 03:09:00,62.4,56.1,30.17,NNW,336,0.0,1.0,80,0.00,,,0.00,0,Wunderground v.1.15,2014-07-23 08:09:00,
2014-07-23 03:10:00,62.3,56.0,30.17,NNW,336,0.0,0.0,80,0.00,,,0.00,0,Wunderground v.1.15,2014-07-23 08:10:00,
2014-07-23 03:11:00,62.3,56.0,30.17,NNW,336,0.0,0.0,80,0.00,,,0.00,0,Wunderground v.1.15,2014-07-23 08:11:00,
2014-07-23 03:12:00,62.2,56.0,30.16,NNW,336,0.0,0.0,80,0.00,,,0.00,0,Wunderground v.1.15,2014-07-23 08:12:00,
2014-07-23 03:13:00,62.2,56.0,30.17,NNW,336,0.0,0.0,80,0.00,,,0.00,0,Wunderground v.1.15,2014-07-23 08:13:00,
2014-07-23 03:14:00,62.2,56.0,30.17,NNW,336,0.0,0.0,80,0.00,,,0.00,0,Wunderground v.1.15,2014-07-23 08:14:00,
2014-07-23 03:15:00,62.2,56.0,30.17,NNW,336,0.0,0.0,80,0.00,,,0.00,0,Wunderground v.1.15,2014-07-23 08:15:00,
2014-07-23 03:17:00,62.2,56.0,30.17,NNW,336,0.0,1.0,80,0.00,,,0.00,0,Wunderground v.1.15,2014-07-23 08:17:00,
2014-07-23 03:19:00,62.2,56.0,30.16,NNW,336,0.0,1.0,80,0.00,,,0.00,0,Wunderground v.1.15,2014-07-23 08:19:00,
2014-07-23 03:20:00,62.2,56.0,30.17,NNW,336,0.0,0.0,80,0.00,,,0.00,0,Wunderground v.1.15,2014-07-23 08:20:00,
2014-07-23 03:21:00,62.2,56.0,30.17,NNW,336,0.0,0.0,80,0.00,,,0.00,0,Wunderground v.1.15,2014-07-23 08:21:00,
2014-07-23 03:22:00,62.2,56.0,30.17,NNW,336,0.0,0.0,80,0.00,,,0.00,0,Wunderground v.1.15,2014-07-23 08:22:00,
2014-07-23 03:24:00,62.2,56.0,30.17,NNW,336,0.0,1.0,80,0.00,,,0.00,0,Wunderground v.1.15,2014-07-23 08:24:00,
2014-07-23 03:26:00,62.2,56.0,30.17,NNW,336,0.0,1.0,80,0.00,,,0.00,0,Wunderground v.1.15,2014-07-23 08:26:00,
2014-07-23 03:27:00,62.2,56.0,30.17,NNW,336,0.0,1.0,80,0.00,,,0.00,0,Wunderground v.1.15,2014-07-23 08:27:00,
2014-07-23 03:29:00,62.1,55.9,30.17,NNW,336,0.0,1.0,80,0.00,,,0.00,0,Wunderground v.1.15,2014-07-23 08:29:00,
2014-07-23 03:31:00,62.1,55.9,30.17,NNW,336,0.0,0.0,80,0.00,,,0.00,0,Wunderground v.1.15,2014-07-23 08:31:00,
2014-07-23 03:32:00,62.1,55.9,30.17,NNW,336,0.0,0.0,80,0.00,,,0.00,0,Wunderground v.1.15,2014-07-23 08:32:00,
2014-07-23 03:33:00,62.1,55.9,30.17,NNW,336,0.0,0.0,80,0.00,,,0.00,0,Wunderground v.1.15,2014-07-23 08:33:00,
2014-07-23 03:34:00,62.1,55.9,30.17,NNW,336,0.0,0.0,80,0.00,,,0.00,0,Wunderground v.1.15,2014-07-23 08:34:00,
2014-07-23 03:37:00,62.0,55.8,30.17,NNW,336,0.0,0.0,80,0.00,,,0.00,0,Wunderground v.1.15,2014-07-23 08:37:00,
2014-07-23 03:38:00,62.0,55.8,30.17,NNW,336,0.0,0.0,80,0.00,,,0.00,0,Wunderground v.1.15,2014-07-23 08:38:00,
2014-07-23 03:39:00,62.0,56.1,30.17,NNW,336,0.0,0.0,81,0.00,,,0.00,0,Wunderground v.1.15,2014-07-23 08:39:00,
2014-07-23 03:40:00,62.0,56.1,30.17,NNW,336,0.0,0.0,81,0.00,,,0.00,0,Wunderground v.1.15,2014-07-23 08:40:00,
2014-07-23 03:43:00,62.0,56.1,30.17,NNW,336,0.0,0.0,81,0.00,,,0.00,0,Wunderground v.1.15,2014-07-23 08:43:00,
2014-07-23 03:45:00,61.9,56.0,30.17,NNW,336,0.0,0.0,81,0.00,,,0.00,0,Wunderground v.1.15,2014-07-23 08:45:00,
2014-07-23 03:48:00,61.9,56.0,30.18,NNW,336,0.0,0.0,81,0.00,,,0.00,0,Wunderground v.1.15,2014-07-23 08:48:00,
2014-07-23 03:49:00,61.9,56.0,30.17,NNW,336,0.0,0.0,81,0.00,,,0.00,0,Wunderground v.1.15,2014-07-23 08:49:00,
2014-07-23 03:50:00,61.9,56.0,30.18,NNW,336,0.0,0.0,81,0.00,,,0.00,0,Wunderground v.1.15,2014-07-23 08:50:00,
2014-07-23 03:53:00,61.8,55.9,30.17,NNW,336,0.0,0.0,81,0.00,,,0.00,0,Wunderground v.1.15,2014-07-23 08:53:00,
2014-07-23 03:54:00,61.8,55.9,30.18,NNW,336,0.0,0.0,81,0.00,,,0.00,0,Wunderground v.1.15,2014-07-23 08:54:00,
2014-07-23 03:55:00,61.8,55.9,30.18,NNW,336,0.0,0.0,81,0.00,,,0.00,0,Wunderground v.1.15,2014-07-23 08:55:00,
2014-07-23 03:56:00,61.7,55.8,30.18,NNW,336,0.0,0.0,81,0.00,,,0.00,0,Wunderground v.1.15,2014-07-23 08:56:00,
2014-07-23 03:58:00,61.6,55.7,30.18,NNW,336,0.0,0.0,81,0.00,,,0.00,0,Wunderground v.1.15,2014-07-23 08:58:00,
2014-07-23 03:59:00,61.6,55.7,30.18,NNW,336,0.0,0.0,81,0.00,,,0.00,0,Wunderground v.1.15,2014-07-23 08:59:00,
2014-07-23 04:00:00,61.6,56.0,30.18,NNW,336,0.0,0.0,82,0.00,,,0.00,0,Wunderground v.1.15,2014-07-23 09:00:00,
2014-07-23 04:01:00,61.6,56.0,30.18,NNW,336,0.0,0.0,82,0.00,,,0.00,0,Wunderground v.1.15,2014-07-23 09:01:00,
2014-07-23 04:03:00,61.5,56.0,30.18,NNW,336,0.0,0.0,82,0.00,,,0.00,0,Wunderground v.1.15,2014-07-23 09:03:00,
2014-07-23 04:05:00,61.5,56.0,30.18,NNW,336,0.0,0.0,82,0.00,,,0.00,0,Wunderground v.1.15,2014-07-23 09:05:00,
2014-07-23 04:06:00,61.5,56.0,30.18,NNW,336,0.0,0.0,82,0.00,,,0.00,0,Wunderground v.1.15,2014-07-23 09:06:00,
2014-07-23 04:09:00,61.5,56.0,30.19,NNW,336,0.0,0.0,82,0.00,,,0.00,0,Wunderground v.1.15,2014-07-23 09:09:00,
2014-07-23 04:10:00,61.4,56.2,30.19,NNW,336,0.0,0.0,83,0.00,,,0.00,0,Wunderground v.1.15,2014-07-23 09:10:00,
2014-07-23 04:11:00,61.4,55.9,30.19,NNW,336,0.0,0.0,82,0.00,,,0.00,0,Wunderground v.1.15,2014-07-23 09:11:00,
2014-07-23 04:12:00,61.4,56.2,30.19,NNW,336,0.0,0.0,83,0.00,,,0.00,0,Wunderground v.1.15,2014-07-23 09:12:00,
2014-07-23 04:14:00,61.3,56.1,30.19,NNW,336,0.0,0.0,83,0.00,,,0.00,0,Wunderground v.1.15,2014-07-23 09:14:00,
2014-07-23 04:16:00,61.3,56.1,30.19,NNW,336,0.0,0.0,83,0.00,,,0.00,0,Wunderground v.1.15,2014-07-23 09:16:00,
2014-07-23 04:17:00,61.2,56.0,30.19,NNW,336,0.0,0.0,83,0.00,,,0.00,0,Wunderground v.1.15,2014-07-23 09:17:00,
2014-07-23 04:19:00,61.1,56.2,30.19,NNW,336,0.0,0.0,84,0.00,,,0.00,0,Wunderground v.1.15,2014-07-23 09:19:00,
2014-07-23 04:22:00,61.1,56.2,30.19,NNW,336,0.0,0.0,84,0.00,,,0.00,0,Wunderground v.1.15,2014-07-23 09:22:00,
2014-07-23 04:23:00,61.0,56.1,30.19,NNW,336,0.0,0.0,84,0.00,,,0.00,0,Wunderground v.1.15,2014-07-23 09:23:00,
2014-07-23 04:24:00,61.0,56.1,30.19,NNW,336,0.0,0.0,84,0.00,,,0.00,0,Wunderground v.1.15,2014-07-23 09:24:00,
2014-07-23 04:27:00,60.9,56.0,30.19,NNW,336,0.0,0.0,84,0.00,,,0.00,0,Wunderground v.1.15,2014-07-23 09:27:00,
2014-07-23 04:28:00,60.8,55.9,30.19,NNW,336,0.0,0.0,84,0.00,,,0.00,0,Wunderground v.1.15,2014-07-23 09:28:00,
2014-07-23 04:29:00,60.8,55.9,30.19,NNW,336,0.0,0.0,84,0.00,,,0.00,0,Wunderground v.1.15,2014-07-23 09:29:00,
2014-07-23 04:30:00,60.7,55.8,30.19,NNW,336,0.0,0.0,84,0.00,,,0.00,0,Wunderground v.1.15,2014-07-23 09:30:00,
2014-07-23 04:32:00,60.5,56.0,30.19,NNW,336,0.0,0.0,85,0.00,,,0.00,0,Wunderground v.1.15,2014-07-23 09:32:00,
2014-07-23 04:33:00,60.4,55.9,30.19,NNW,336,0.0,0.0,85,0.00,,,0.00,0,Wunderground v.1.15,2014-07-23 09:33:00,
2014-07-23 04:34:00,60.4,55.9,30.19,NNW,336,0.0,0.0,85,0.00,,,0.00,0,Wunderground v.1.15,2014-07-23 09:34:00,
2014-07-23 04:35:00,60.3,55.8,30.19,NNW,336,0.0,0.0,85,0.00,,,0.00,0,Wunderground v.1.15,2014-07-23 09:35:00,
2014-07-23 04:37:00,60.1,55.9,30.19,NNW,336,0.0,0.0,86,0.00,,,0.00,0,Wunderground v.1.15,2014-07-23 09:37:00,
2014-07-23 04:38:00,60.0,55.8,30.19,NNW,336,0.0,0.0,86,0.00,,,0.00,0,Wunderground v.1.15,2014-07-23 09:38:00,
2014-07-23 04:39:00,60.0,55.8,30.19,NNW,336,0.0,0.0,86,0.00,,,0.00,0,Wunderground v.1.15,2014-07-23 09:39:00,
2014-07-23 04:40:00,59.9,55.7,30.19,NNW,336,0.0,0.0,86,0.00,,,0.00,0,Wunderground v.1.15,2014-07-23 09:40:00,
2014-07-23 04:43:00,59.7,55.8,30.19,NNW,336,0.0,0.0,87,0.00,,,0.00,0,Wunderground v.1.15,2014-07-23 09:43:00,
2014-07-23 04:44:00,59.6,55.7,30.19,NNW,336,0.0,0.0,87,0.00,,,0.00,0,Wunderground v.1.15,2014-07-23 09:44:00,
2014-07-23 04:45:00,59.6,55.7,30.19,NNW,336,0.0,0.0,87,0.00,,,0.00,0,Wunderground v.1.15,2014-07-23 09:45:00,
2014-07-23 04:48:00,59.3,55.7,30.19,NNW,336,0.0,0.0,88,0.00,,,0.00,0,Wunderground v.1.15,2014-07-23 09:48:00,
2014-07-23 04:49:00,59.3,55.7,30.19,NNW,336,0.0,0.0,88,0.00,,,0.00,0,Wunderground v.1.15,2014-07-23 09:49:00,
2014-07-23 04:50:00,59.2,55.6,30.19,NNW,336,0.0,0.0,88,0.00,,,0.00,0,Wunderground v.1.15,2014-07-23 09:50:00,
2014-07-23 04:53:00,59.0,55.8,30.19,NNW,336,0.0,0.0,89,0.00,,,0.00,0,Wunderground v.1.15,2014-07-23 09:53:00,
2014-07-23 04:54:00,59.0,55.8,30.19,NNW,336,0.0,0.0,89,0.00,,,0.00,0,Wunderground v.1.15,2014-07-23 09:54:00,
2014-07-23 04:55:00,58.9,56.0,30.19,NNW,336,0.0,0.0,90,0.00,,,0.00,0,Wunderground v.1.15,2014-07-23 09:55:00,
2014-07-23 04:58:00,58.7,56.1,30.19,NNW,336,0.0,0.0,91,0.00,,,0.00,0,Wunderground v.1.15,2014-07-23 09:58:00,
2014-07-23 04:59:00,58.7,55.8,30.19,NNW,336,0.0,0.0,90,0.00,,,0.00,0,Wunderground v.1.15,2014-07-23 09:59:00,
2014-07-23 05:00:00,58.7,55.8,30.19,NNW,336,0.0,0.0,90,0.00,,,0.00,0,Wunderground v.1.15,2014-07-23 10:00:00,
2014-07-23 05:01:00,58.7,56.1,30.19,NNW,336,0.0,0.0,91,0.00,,,0.00,0,Wunderground v.1.15,2014-07-23 10:01:00,
2014-07-23 05:03:00,58.5,55.9,30.19,NNW,336,0.0,0.0,91,0.00,,,0.00,0,Wunderground v.1.15,2014-07-23 10:03:00,
2014-07-23 05:04:00,58.5,55.9,30.18,NNW,336,0.0,0.0,91,0.00,,,0.00,0,Wunderground v.1.15,2014-07-23 10:04:00,
2014-07-23 05:05:00,58.4,56.1,30.19,NNW,336,0.0,0.0,92,0.00,,,0.00,0,Wunderground v.1.15,2014-07-23 10:05:00,
2014-07-23 05:06:00,58.4,56.1,30.19,NNW,336,0.0,0.0,92,0.00,,,0.00,0,Wunderground v.1.15,2014-07-23 10:06:00,
2014-07-23 05:09:00,58.3,56.0,30.19,NNW,336,0.0,0.0,92,0.00,,,0.00,0,Wunderground v.1.15,2014-07-23 10:09:00,
2014-07-23 05:10:00,58.3,56.3,30.19,NNW,336,0.0,0.0,93,0.00,,,0.00,0,Wunderground v.1.15,2014-07-23 10:10:00,
2014-07-23 05:11:00,58.2,56.2,30.18,NNW,336,0.0,0.0,93,0.00,,,0.00,0,Wunderground v.1.15,2014-07-23 10:11:00,
2014-07-23 05:14:00,58.1,56.4,30.18,NNW,336,0.0,0.0,94,0.00,,,0.00,0,Wunderground v.1.15,2014-07-23 10:14:00,
2014-07-23 05:15:00,58.1,56.4,30.18,NNW,336,0.0,0.0,94,0.00,,,0.00,0,Wunderground v.1.15,2014-07-23 10:15:00,
2014-07-23 05:16:00,58.0,56.3,30.18,NNW,336,0.0,0.0,94,0.00,,,0.00,0,Wunderground v.1.15,2014-07-23 10:16:00,
2014-07-23 05:19:00,58.0,56.3,30.18,NNW,336,0.0,0.0,94,0.00,,,0.00,0,Wunderground v.1.15,2014-07-23 10:19:00,
2014-07-23 05:20:00,57.9,56.2,30.19,NNW,336,0.0,0.0,94,0.00,,,0.00,0,Wunderground v.1.15,2014-07-23 10:20:00,
2014-07-23 05:21:00,57.9,56.5,30.19,NNW,336,0.0,0.0,95,0.00,,,0.00,0,Wunderground v.1.15,2014-07-23 10:21:00,
2014-07-23 05:22:00,57.9,56.5,30.19,NNW,336,0.0,0.0,95,0.00,,,0.00,0,Wunderground v.1.15,2014-07-23 10:22:00,
2014-07-23 05:24:00,57.8,56.4,30.19,NNW,336,0.0,0.0,95,0.00,,,0.00,0,Wunderground v.1.15,2014-07-23 10:24:00,
2014-07-23 05:25:00,57.8,56.4,30.18,NNW,336,0.0,0.0,95,0.00,,,0.00,0,Wunderground v.1.15,2014-07-23 10:25:00,
2014-07-23 05:26:00,57.8,56.4,30.19,NNW,336,0.0,0.0,95,0.00,,,0.00,0,Wunderground v.1.15,2014-07-23 10:26:00,
2014-07-23 05:27:00,57.8,56.4,30.19,NNW,336,0.0,0.0,95,0.00,,,0.00,0,Wunderground v.1.15,2014-07-23 10:27:00,
2014-07-23 05:29:00,57.7,56.6,30.19,NNW,336,0.0,0.0,96,0.00,,,0.00,0,Wunderground v.1.15,2014-07-23 10:29:00,
2014-07-23 05:31:00,57.7,56.6,30.19,NNW,336,0.0,0.0,96,0.00,,,0.00,0,Wunderground v.1.15,2014-07-23 10:31:00,
2014-07-23 05:32:00,57.7,56.6,30.19,NNW,336,0.0,0.0,96,0.00,,,0.00,0,Wunderground v.1.15,2014-07-23 10:32:00,
2014-07-23 05:34:00,57.6,56.5,30.19,NNW,336,0.0,0.0,96,0.00,,,0.00,0,Wunderground v.1.15,2014-07-23 10:34:00,
2014-07-23 05:36:00,57.7,56.9,30.19,NNW,336,0.0,0.0,97,0.00,,,0.00,0,Wunderground v.1.15,2014-07-23 10:36:00,
2014-07-23 05:37:00,57.6,56.8,30.20,NNW,336,0.0,0.0,97,0.00,,,0.00,0,Wunderground v.1.15,2014-07-23 10:37:00,
2014-07-23 05:40:00,57.7,57.4,30.20,NNW,336,0.0,0.0,99,0.00,,,0.00,0,Wunderground v.1.15,2014-07-23 10:40:00,
2014-07-23 05:41:00,57.7,57.7,30.20,NNW,336,0.0,0.0,100,0.00,,,0.00,0,Wunderground v.1.15,2014-07-23 10:41:00,
2014-07-23 05:42:00,57.7,57.7,30.21,NNW,336,0.0,0.0,100,0.00,,,0.00,0,Wunderground v.1.15,2014-07-23 10:42:00,
2014-07-23 05:43:00,57.7,57.7,30.20,NNW,336,0.0,0.0,100,0.00,,,0.00,0,Wunderground v.1.15,2014-07-23 10:43:00,
2014-07-23 05:45:00,57.7,57.7,30.20,NNW,336,0.0,0.0,100,0.00,,,0.00,0,Wunderground v.1.15,2014-07-23 10:45:00,
2014-07-23 05:47:00,57.8,57.8,30.21,NNW,336,0.0,0.0,100,0.00,,,0.00,0,Wunderground v.1.15,2014-07-23 10:47:00,
2014-07-23 05:48:00,57.7,57.7,30.20,NNW,336,0.0,0.0,100,0.00,,,0.00,0,Wunderground v.1.15,2014-07-23 10:48:00,
2014-07-23 05:50:00,57.8,57.8,30.21,NNW,336,0.0,0.0,100,0.00,,,0.00,0,Wunderground v.1.15,2014-07-23 10:50:00,
2014-07-23 05:52:00,57.8,57.8,30.21,NNW,336,0.0,0.0,100,0.00,,,0.00,0,Wunderground v.1.15,2014-07-23 10:52:00,
2014-07-23 05:53:00,57.9,57.9,30.21,NNW,336,0.0,0.0,100,0.00,,,0.00,0,Wunderground v.1.15,2014-07-23 10:53:00,
2014-07-23 05:54:00,57.9,57.9,30.21,NNW,336,0.0,0.0,100,0.00,,,0.00,0,Wunderground v.1.15,2014-07-23 10:54:00,
2014-07-23 05:55:00,58.0,58.0,30.21,NNW,336,0.0,0.0,100,0.00,,,0.00,0,Wunderground v.1.15,2014-07-23 10:55:00,
2014-07-23 05:57:00,58.0,58.0,30.21,NNW,336,0.0,0.0,100,0.00,,,0.00,0,Wunderground v.1.15,2014-07-23 10:57:00,
2014-07-23 05:59:00,58.2,58.2,30.21,NNW,336,0.0,0.0,100,0.00,,,0.00,0,Wunderground v.1.15,2014-07-23 10:59:00,
2014-07-23 06:00:00,58.2,58.2,30.21,NNW,336,0.0,0.0,100,0.00,,,0.00,0,Wunderground v.1.15,2014-07-23 11:00:00,
2014-07-23 06:02:00,58.3,58.3,30.21,NNW,336,0.0,0.0,100,0.00,,,0.00,0,Wunderground v.1.15,2014-07-23 11:02:00,
2014-07-23 06:03:00,58.3,58.3,30.21,NNW,336,0.0,0.0,100,0.00,,,0.00,0,Wunderground v.1.15,2014-07-23 11:03:00,
2014-07-23 06:05:00,58.3,58.3,30.21,NNW,336,0.0,0.0,100,0.00,,,0.00,0,Wunderground v.1.15,2014-07-23 11:05:00,
2014-07-23 06:07:00,58.4,58.4,30.21,NNW,336,0.0,2.0,100,0.00,,,0.00,0,Wunderground v.1.15,2014-07-23 11:07:00,
2014-07-23 06:08:00,58.4,58.4,30.21,NNW,336,0.0,2.0,100,0.00,,,0.00,0,Wunderground v.1.15,2014-07-23 11:08:00,
2014-07-23 06:10:00,58.4,58.4,30.21,NNW,336,0.0,0.0,100,0.00,,,0.00,0,Wunderground v.1.15,2014-07-23 11:10:00,
2014-07-23 06:12:00,58.4,58.4,30.22,NNW,336,0.0,0.0,100,0.00,,,0.00,0,Wunderground v.1.15,2014-07-23 11:12:00,
2014-07-23 06:13:00,58.4,58.4,30.21,NNW,336,0.0,0.0,100,0.00,,,0.00,0,Wunderground v.1.15,2014-07-23 11:13:00,
2014-07-23 06:14:00,58.3,58.3,30.21,NNW,336,0.0,0.0,100,0.00,,,0.00,0,Wunderground v.1.15,2014-07-23 11:14:00,
2014-07-23 06:15:00,58.3,58.3,30.21,NNW,336,0.0,0.0,100,0.00,,,0.00,0,Wunderground v.1.15,2014-07-23 11:15:00,
2014-07-23 06:16:00,58.3,58.3,30.21,NNW,336,0.0,0.0,100,0.00,,,0.00,0,Wunderground v.1.15,2014-07-23 11:16:00,
2014-07-23 06:17:00,58.2,58.2,30.21,NNW,336,0.0,0.0,100,0.00,,,0.00,0,Wunderground v.1.15,2014-07-23 11:17:00,
2014-07-23 06:18:00,58.2,58.2,30.21,NNW,336,0.0,0.0,100,0.00,,,0.00,0,Wunderground v.1.15,2014-07-23 11:18:00,
2014-07-23 06:19:00,58.1,58.1,30.21,NNW,336,0.0,0.0,100,0.00,,,0.00,0,Wunderground v.1.15,2014-07-23 11:19:00,
2014-07-23 06:20:00,58.1,58.1,30.21,NNW,336,0.0,0.0,100,0.00,,,0.00,0,Wunderground v.1.15,2014-07-23 11:20:00,
2014-07-23 06:21:00,58.1,58.1,30.21,NNW,336,0.0,0.0,100,0.00,,,0.00,0,Wunderground v.1.15,2014-07-23 11:21:00,
2014-07-23 06:22:00,58.0,58.0,30.21,NNW,336,0.0,0.0,100,0.00,,,0.00,0,Wunderground v.1.15,2014-07-23 11:22:00,
2014-07-23 06:23:00,58.0,58.0,30.21,NNW,336,0.0,0.0,100,0.00,,,0.00,0,Wunderground v.1.15,2014-07-23 11:23:00,
2014-07-23 06:24:00,58.0,58.0,30.22,NNW,336,0.0,0.0,100,0.00,,,0.00,0,Wunderground v.1.15,2014-07-23 11:24:00,
2014-07-23 06:26:00,58.0,58.0,30.21,NNW,336,0.0,0.0,100,0.00,,,0.00,0,Wunderground v.1.15,2014-07-23 11:26:00,
2014-07-23 06:27:00,58.0,58.0,30.21,NNW,336,0.0,0.0,100,0.00,,,0.00,0,Wunderground v.1.15,2014-07-23 11:27:00,
2014-07-23 06:28:00,58.0,58.0,30.22,NNW,336,0.0,0.0,100,0.00,,,0.00,0,Wunderground v.1.15,2014-07-23 11:28:00,
2014-07-23 06:29:00,57.9,57.9,30.21,NNW,336,0.0,0.0,100,0.00,,,0.00,0,Wunderground v.1.15,2014-07-23 11:29:00,
2014-07-23 06:31:00,57.9,57.9,30.22,NNW,336,0.0,0.0,100,0.00,,,0.00,0,Wunderground v.1.15,2014-07-23 11:31:00,
2014-07-23 06:32:00,57.9,57.9,30.22,NNW,336,0.0,0.0,100,0.00,,,0.00,0,Wunderground v.1.15,2014-07-23 11:32:00,
2014-07-23 06:33:00,57.9,57.9,30.22,NNW,336,0.0,0.0,100,0.00,,,0.00,0,Wunderground v.1.15,2014-07-23 11:33:00,
2014-07-23 06:34:00,57.9,57.9,30.22,NNW,336,0.0,0.0,100,0.00,,,0.00,0,Wunderground v.1.15,2014-07-23 11:34:00,
2014-07-23 06:37:00,58.0,58.0,30.22,NNW,336,0.0,0.0,100,0.00,,,0.00,0,Wunderground v.1.15,2014-07-23 11:37:00,
2014-07-23 06:38:00,58.0,58.0,30.22,NNW,336,0.0,0.0,100,0.00,,,0.00,0,Wunderground v.1.15,2014-07-23 11:38:00,
2014-07-23 06:39:00,58.0,58.0,30.22,NNW,336,0.0,0.0,100,0.00,,,0.00,0,Wunderground v.1.15,2014-07-23 11:39:00,
2014-07-23 06:40:00,58.1,58.1,30.23,NNW,336,0.0,0.0,100,0.00,,,0.00,0,Wunderground v.1.15,2014-07-23 11:40:00,
2014-07-23 06:42:00,58.2,58.2,30.22,NNW,336,0.0,0.0,100,0.00,,,0.00,0,Wunderground v.1.15,2014-07-23 11:42:00,
2014-07-23 06:43:00,58.2,58.2,30.23,NNW,336,0.0,0.0,100,0.00,,,0.00,0,Wunderground v.1.15,2014-07-23 11:43:00,
2014-07-23 06:44:00,58.2,58.2,30.23,NNW,336,0.0,0.0,100,0.00,,,0.00,0,Wunderground v.1.15,2014-07-23 11:44:00,
2014-07-23 06:45:00,58.3,58.3,30.23,NNW,336,0.0,0.0,100,0.00,,,0.00,0,Wunderground v.1.15,2014-07-23 11:45:00,
2014-07-23 06:47:00,58.4,58.4,30.23,NNW,336,0.0,0.0,100,0.00,,,0.00,0,Wunderground v.1.15,2014-07-23 11:47:00,
2014-07-23 06:48:00,58.4,58.4,30.23,NNW,336,0.0,0.0,100,0.00,,,0.00,0,Wunderground v.1.15,2014-07-23 11:48:00,
2014-07-23 06:49:00,58.5,58.5,30.23,NNW,336,0.0,0.0,100,0.00,,,0.00,0,Wunderground v.1.15,2014-07-23 11:49:00,
2014-07-23 06:50:00,58.5,58.5,30.23,NNW,336,0.0,0.0,100,0.00,,,0.00,0,Wunderground v.1.15,2014-07-23 11:50:00,
2014-07-23 06:53:00,58.8,58.8,30.22,NNW,336,0.0,0.0,100,0.00,,,0.00,0,Wunderground v.1.15,2014-07-23 11:53:00,
2014-07-23 06:54:00,59.0,59.0,30.23,NNW,336,0.0,0.0,100,0.00,,,0.00,0,Wunderground v.1.15,2014-07-23 11:54:00,
2014-07-23 06:55:00,59.2,59.2,30.23,NNW,336,0.0,0.0,100,0.00,,,0.00,0,Wunderground v.1.15,2014-07-23 11:55:00,
2014-07-23 06:58:00,59.7,59.7,30.23,NNW,336,0.0,0.0,100,0.00,,,0.00,0,Wunderground v.1.15,2014-07-23 11:58:00,
2014-07-23 06:59:00,59.8,59.8,30.23,NNW,336,0.0,0.0,100,0.00,,,0.00,0,Wunderground v.1.15,2014-07-23 11:59:00,
2014-07-23 07:00:00,59.8,59.8,30.23,NNW,336,0.0,0.0,100,0.00,,,0.00,0,Wunderground v.1.15,2014-07-23 12:00:00,
2014-07-23 07:01:00,59.9,59.9,30.23,NNW,336,0.0,0.0,100,0.00,,,0.00,0,Wunderground v.1.15,2014-07-23 12:01:00,
2014-07-23 07:03:00,60.1,60.1,30.23,NNW,336,0.0,0.0,100,0.00,,,0.00,0,Wunderground v.1.15,2014-07-23 12:03:00,
2014-07-23 07:04:00,60.1,60.1,30.23,NNW,336,0.0,0.0,100,0.00,,,0.00,0,Wunderground v.1.15,2014-07-23 12:04:00,
2014-07-23 07:05:00,60.2,60.2,30.23,NNW,336,0.0,0.0,100,0.00,,,0.00,0,Wunderground v.1.15,2014-07-23 12:05:00,
2014-07-23 07:06:00,60.2,60.2,30.24,NNW,336,0.0,0.0,100,0.00,,,0.00,0,Wunderground v.1.15,2014-07-23 12:06:00,
2014-07-23 07:08:00,60.5,60.5,30.23,NNW,336,0.0,0.0,100,0.00,,,0.00,0,Wunderground v.1.15,2014-07-23 12:08:00,
2014-07-23 07:09:00,60.6,60.6,30.23,NNW,336,0.0,0.0,100,0.00,,,0.00,0,Wunderground v.1.15,2014-07-23 12:09:00,
2014-07-23 07:11:00,60.8,60.8,30.23,NNW,336,0.0,0.0,100,0.00,,,0.00,0,Wunderground v.1.15,2014-07-23 12:11:00,
2014-07-23 07:13:00,61.1,61.1,30.24,NNW,336,0.0,0.0,100,0.00,,,0.00,0,Wunderground v.1.15,2014-07-23 12:13:00,
2014-07-23 07:14:00,61.3,61.3,30.23,NNW,336,0.0,0.0,100,0.00,,,0.00,0,Wunderground v.1.15,2014-07-23 12:14:00,
2014-07-23 07:15:00,61.3,61.3,30.23,NNW,336,0.0,0.0,100,0.00,,,0.00,0,Wunderground v.1.15,2014-07-23 12:15:00,
2014-07-23 07:16:00,61.5,61.5,30.23,NNW,336,0.0,0.0,100,0.00,,,0.00,0,Wunderground v.1.15,2014-07-23 12:16:00,
2014-07-23 07:17:00,61.6,61.6,30.23,NNW,336,0.0,0.0,100,0.00,,,0.00,0,Wunderground v.1.15,2014-07-23 12:17:00,
2014-07-23 07:19:00,61.8,61.8,30.23,NNW,336,0.0,0.0,100,0.00,,,0.00,0,Wunderground v.1.15,2014-07-23 12:19:00,
2014-07-23 07:20:00,62.0,62.0,30.23,NNW,336,0.0,0.0,100,0.00,,,0.00,0,Wunderground v.1.15,2014-07-23 12:20:00,
2014-07-23 07:21:00,62.1,62.1,30.23,NNW,336,0.0,0.0,100,0.00,,,0.00,0,Wunderground v.1.15,2014-07-23 12:21:00,
2014-07-23 07:22:00,62.2,62.2,30.23,NNW,336,0.0,0.0,100,0.00,,,0.00,0,Wunderground v.1.15,2014-07-23 12:22:00,
2014-07-23 07:24:00,62.3,62.3,30.23,NNW,336,0.0,2.0,100,0.00,,,0.00,0,Wunderground v.1.15,2014-07-23 12:24:00,
2014-07-23 07:25:00,62.5,62.5,30.23,NNW,336,0.0,2.0,100,0.00,,,0.00,0,Wunderground v.1.15,2014-07-23 12:25:00,
2014-07-23 07:26:00,62.5,62.5,30.23,NNW,336,0.0,2.0,100,0.00,,,0.00,0,Wunderground v.1.15,2014-07-23 12:26:00,
2014-07-23 07:27:00,62.6,62.6,30.23,NNW,336,0.0,2.0,100,0.00,,,0.00,0,Wunderground v.1.15,2014-07-23 12:27:00,
2014-07-23 07:28:00,62.7,62.7,30.23,NNW,336,2.0,2.0,100,0.00,,,0.00,0,Wunderground v.1.15,2014-07-23 12:28:00,
2014-07-23 07:29:00,62.8,62.8,30.23,NNW,336,1.0,3.0,100,0.00,,,0.00,0,Wunderground v.1.15,2014-07-23 12:29:00,
2014-07-23 07:30:00,62.8,62.8,30.23,NNW,336,0.0,0.0,100,0.00,,,0.00,0,Wunderground v.1.15,2014-07-23 12:30:00,
2014-07-23 07:31:00,62.9,62.6,30.23,NNW,336,0.0,1.0,99,0.00,,,0.00,0,Wunderground v.1.15,2014-07-23 12:31:00,
2014-07-23 07:32:00,63.0,62.7,30.24,NNW,336,0.0,1.0,99,0.00,,,0.00,0,Wunderground v.1.15,2014-07-23 12:32:00,
2014-07-23 07:33:00,63.1,62.5,30.23,NNW,336,0.0,1.0,98,0.00,,,0.00,0,Wunderground v.1.15,2014-07-23 12:33:00,
2014-07-23 07:34:00,63.1,62.5,30.23,NNW,336,0.0,1.0,98,0.00,,,0.00,0,Wunderground v.1.15,2014-07-23 12:34:00,
2014-07-23 07:35:00,63.2,62.6,30.23,NNW,336,0.0,1.0,98,0.00,,,0.00,0,Wunderground v.1.15,2014-07-23 12:35:00,
2014-07-23 07:36:00,63.3,62.7,30.23,NNW,336,0.0,1.0,98,0.00,,,0.00,0,Wunderground v.1.15,2014-07-23 12:36:00,
2014-07-23 07:37:00,63.3,62.7,30.23,NNW,336,0.0,1.0,98,0.00,,,0.00,0,Wunderground v.1.15,2014-07-23 12:37:00,
2014-07-23 07:39:00,63.4,62.5,30.23,NNW,336,0.0,3.0,97,0.00,,,0.00,0,Wunderground v.1.15,2014-07-23 12:39:00,
2014-07-23 07:40:00,63.5,62.3,30.23,NNW,336,0.0,0.0,96,0.00,,,0.00,0,Wunderground v.1.15,2014-07-23 12:40:00,
2014-07-23 07:41:00,63.7,62.5,30.23,NNW,336,0.0,0.0,96,0.00,,,0.00,0,Wunderground v.1.15,2014-07-23 12:41:00,
2014-07-23 07:42:00,63.7,62.2,30.24,NNW,336,2.0,3.0,95,0.00,,,0.00,0,Wunderground v.1.15,2014-07-23 12:42:00,
2014-07-23 07:44:00,63.9,62.1,30.24,NNW,337,3.0,3.0,94,0.00,,,0.00,0,Wunderground v.1.15,2014-07-23 12:44:00,
2014-07-23 07:45:00,64.0,61.9,30.24,NNW,337,1.0,3.0,93,0.00,,,0.00,0,Wunderground v.1.15,2014-07-23 12:45:00,
2014-07-23 07:46:00,64.0,61.6,30.23,NNW,337,1.0,3.0,92,0.00,,,0.00,0,Wunderground v.1.15,2014-07-23 12:46:00,
2014-07-23 07:47:00,64.0,61.3,30.24,NNW,337,1.0,3.0,91,0.00,,,0.00,0,Wunderground v.1.15,2014-07-23 12:47:00,
2014-07-23 07:48:00,64.1,61.4,30.23,NNW,337,1.0,3.0,91,0.00,,,0.00,0,Wunderground v.1.15,2014-07-23 12:48:00,
2014-07-23 07:50:00,64.2,61.5,30.23,NNW,337,0.0,0.0,91,0.00,,,0.00,0,Wunderground v.1.15,2014-07-23 12:50:00,
2014-07-23 07:51:00,64.2,61.2,30.23,NNW,336,1.0,2.0,90,0.00,,,0.00,0,Wunderground v.1.15,2014-07-23 12:51:00,
2014-07-23 07:52:00,64.2,60.9,30.23,NNW,337,1.0,2.0,89,0.00,,,0.00,0,Wunderground v.1.15,2014-07-23 12:52:00,
2014-07-23 07:53:00,64.3,61.3,30.24,NNW,337,2.0,2.0,90,0.00,,,0.00,0,Wunderground v.1.15,2014-07-23 12:53:00,
2014-07-23 07:56:00,64.4,60.8,30.23,NNW,337,1.0,3.0,88,0.00,,,0.00,0,Wunderground v.1.15,2014-07-23 12:56:00,
2014-07-23 07:57:00,64.4,60.8,30.24,NNW,337,1.0,4.0,88,0.00,,,0.00,0,Wunderground v.1.15,2014-07-23 12:57:00,
2014-07-23 07:58:00,64.4,60.4,30.23,NNW,337,2.0,4.0,87,0.00,,,0.00,0,Wunderground v.1.15,2014-07-23 12:58:00,
2014-07-23 07:59:00,64.5,60.5,30.23,NW,322,3.0,4.0,87,0.00,,,0.00,0,Wunderground v.1.15,2014-07-23 12:59:00,
2014-07-23 08:01:00,64.5,59.6,30.24,NW,319,3.0,5.0,84,0.00,,,0.00,0,Wunderground v.1.15,2014-07-23 13:01:00,
2014-07-23 08:03:00,64.7,59.1,30.24,NW,308,2.0,5.0,82,0.00,,,0.00,0,Wunderground v.1.15,2014-07-23 13:03:00,
2014-07-23 08:04:00,64.7,59.1,30.24,NW,308,1.0,5.0,82,0.00,,,0.00,0,Wunderground v.1.15,2014-07-23 13:04:00,
2014-07-23 08:06:00,64.8,58.8,30.25,NW,316,2.0,5.0,81,0.00,,,0.00,0,Wunderground v.1.15,2014-07-23 13:06:00,
2014-07-23 08:08:00,64.9,58.6,30.24,NW,316,1.0,5.0,80,0.00,,,0.00,0,Wunderground v.1.15,2014-07-23 13:08:00,
2014-07-23 08:09:00,64.9,58.6,30.24,NW,316,1.0,5.0,80,0.00,,,0.00,0,Wunderground v.1.15,2014-07-23 13:09:00,
2014-07-23 08:11:00,65.1,58.4,30.24,NW,316,0.0,3.0,79,0.00,,,0.00,0,Wunderground v.1.15,2014-07-23 13:11:00,
2014-07-23 08:12:00,65.2,58.5,30.24,NW,316,0.0,3.0,79,0.00,,,0.00,0,Wunderground v.1.15,2014-07-23 13:12:00,
2014-07-23 08:13:00,65.4,58.7,30.24,NW,316,0.0,3.0,79,0.00,,,0.00,0,Wunderground v.1.15,2014-07-23 13:13:00,
2014-07-23 08:14:00,65.5,59.2,30.24,NW,316,0.0,3.0,80,0.00,,,0.00,0,Wunderground v.1.15,2014-07-23 13:14:00,
2014-07-23 08:15:00,65.7,59.0,30.24,NW,316,1.0,3.0,79,0.00,,,0.00,0,Wunderground v.1.15,2014-07-23 13:15:00,
2014-07-23 08:16:00,65.8,58.7,30.24,NW,316,2.0,3.0,78,0.00,,,0.00,0,Wunderground v.1.15,2014-07-23 13:16:00,
2014-07-23 08:17:00,65.8,58.4,30.24,NW,317,2.0,4.0,77,0.00,,,0.00,0,Wunderground v.1.15,2014-07-23 13:17:00,
2014-07-23 08:19:00,66.0,57.8,30.24,North,5,3.0,4.0,75,0.00,,,0.00,0,Wunderground v.1.15,2014-07-23 13:19:00,
2014-07-23 08:20:00,66.2,57.3,30.23,North,5,1.0,1.0,73,0.00,,,0.00,0,Wunderground v.1.15,2014-07-23 13:20:00,
2014-07-23 08:22:00,66.4,57.1,30.23,North,5,0.0,2.0,72,0.00,,,0.00,0,Wunderground v.1.15,2014-07-23 13:22:00,
2014-07-23 08:23:00,66.6,56.5,30.23,North,0,3.0,5.0,70,0.00,,,0.00,0,Wunderground v.1.15,2014-07-23 13:23:00,
2014-07-23 08:24:00,66.7,56.6,30.23,North,0,1.0,5.0,70,0.00,,,0.00,0,Wunderground v.1.15,2014-07-23 13:24:00,
2014-07-23 08:26:00,66.9,56.0,30.24,North,0,2.0,5.0,68,0.00,,,0.00,0,Wunderground v.1.15,2014-07-23 13:26:00,
2014-07-23 08:27:00,67.1,56.2,30.24,North,0,1.0,5.0,68,0.00,,,0.00,0,Wunderground v.1.15,2014-07-23 13:27:00,
2014-07-23 08:28:00,67.2,56.3,30.23,North,0,1.0,5.0,68,0.00,,,0.00,0,Wunderground v.1.15,2014-07-23 13:28:00,
2014-07-23 08:29:00,67.3,56.0,30.23,North,355,1.0,5.0,67,0.00,,,0.00,0,Wunderground v.1.15,2014-07-23 13:29:00,
2014-07-23 08:30:00,67.3,55.5,30.23,North,355,1.0,2.0,66,0.00,,,0.00,0,Wunderground v.1.15,2014-07-23 13:30:00,
2014-07-23 08:31:00,67.4,55.2,30.23,North,355,1.0,3.0,65,0.00,,,0.00,0,Wunderground v.1.15,2014-07-23 13:31:00,
2014-07-23 08:33:00,67.5,54.9,30.23,North,356,1.0,3.0,64,0.00,,,0.00,0,Wunderground v.1.15,2014-07-23 13:33:00,
2014-07-23 08:34:00,67.7,55.5,30.23,North,356,0.0,3.0,65,0.00,,,0.00,0,Wunderground v.1.15,2014-07-23 13:34:00,
2014-07-23 08:35:00,67.9,55.7,30.23,North,356,0.0,3.0,65,0.00,,,0.00,0,Wunderground v.1.15,2014-07-23 13:35:00,
2014-07-23 08:37:00,68.0,55.4,30.24,North,356,1.0,3.0,64,0.00,,,0.00,0,Wunderground v.1.15,2014-07-23 13:37:00,
2014-07-23 08:38:00,68.1,55.0,30.23,North,356,1.0,3.0,63,0.00,,,0.00,0,Wunderground v.1.15,2014-07-23 13:38:00,
2014-07-23 08:39:00,68.2,55.1,30.23,North,356,1.0,3.0,63,0.00,,,0.00,0,Wunderground v.1.15,2014-07-23 13:39:00,
2014-07-23 08:40:00,68.2,54.7,30.24,NW,316,3.0,4.0,62,0.00,,,0.00,0,Wunderground v.1.15,2014-07-23 13:40:00,
2014-07-23 08:41:00,68.2,53.3,30.23,NW,322,2.0,4.0,59,0.00,,,0.00,0,Wunderground v.1.15,2014-07-23 13:41:00,
2014-07-23 08:42:00,68.3,52.5,30.23,NW,324,2.0,4.0,57,0.00,,,0.00,0,Wunderground v.1.15,2014-07-23 13:42:00,
2014-07-23 08:43:00,68.4,52.6,30.24,NNW,338,2.0,4.0,57,0.00,,,0.00,0,Wunderground v.1.15,2014-07-23 13:43:00,
2014-07-23 08:44:00,68.3,51.5,30.24,NNW,338,1.0,4.0,55,0.00,,,0.00,0,Wunderground v.1.15,2014-07-23 13:44:00,
2014-07-23 08:45:00,68.4,50.6,30.24,NNW,340,1.0,4.0,53,0.00,,,0.00,0,Wunderground v.1.15,2014-07-23 13:45:00,
2014-07-23 08:46:00,68.5,50.2,30.24,NNW,340,2.0,4.0,52,0.00,,,0.00,0,Wunderground v.1.15,2014-07-23 13:46:00,
2014-07-23 08:47:00,68.5,49.7,30.24,NNW,337,3.0,4.0,51,0.00,,,0.00,0,Wunderground v.1.15,2014-07-23 13:47:00,
2014-07-23 08:48:00,68.6,49.2,30.24,NNW,336,2.0,4.0,50,0.00,,,0.00,0,Wunderground v.1.15,2014-07-23 13:48:00,
2014-07-23 08:49:00,68.5,48.6,30.24,NNW,336,0.0,4.0,49,0.00,,,0.00,0,Wunderground v.1.15,2014-07-23 13:49:00,
2014-07-23 08:51:00,68.7,48.8,30.24,NNW,346,2.0,2.0,49,0.00,,,0.00,0,Wunderground v.1.15,2014-07-23 13:51:00,
2014-07-23 08:52:00,68.8,48.3,30.24,North,0,1.0,3.0,48,0.00,,,0.00,0,Wunderground v.1.15,2014-07-23 13:52:00,
2014-07-23 08:53:00,68.9,48.4,30.24,NE,35,3.0,4.0,48,0.00,,,0.00,0,Wunderground v.1.15,2014-07-23 13:53:00,
2014-07-23 08:54:00,69.0,47.9,30.24,NE,35,2.0,4.0,47,0.00,,,0.00,0,Wunderground v.1.15,2014-07-23 13:54:00,
2014-07-23 08:56:00,69.3,47.0,30.23,NE,35,1.0,4.0,45,0.00,,,0.00,0,Wunderground v.1.15,2014-07-23 13:56:00,
2014-07-23 08:58:00,69.4,46.5,30.24,NE,38,1.0,4.0,44,0.00,,,0.00,0,Wunderground v.1.15,2014-07-23 13:58:00,
2014-07-23 08:59:00,69.5,46.6,30.23,NE,38,1.0,4.0,44,0.00,,,0.00,0,Wunderground v.1.15,2014-07-23 13:59:00,
2014-07-23 09:01:00,69.6,46.1,30.23,NE,38,1.0,2.0,43,0.00,,,0.00,0,Wunderground v.1.15,2014-07-23 14:01:00,
2014-07-23 09:03:00,69.6,44.8,30.23,NE,38,1.0,2.0,41,0.00,,,0.00,0,Wunderground v.1.15,2014-07-23 14:03:00,
2014-07-23 09:04:00,69.7,45.6,30.23,NE,38,1.0,2.0,42,0.00,,,0.00,0,Wunderground v.1.15,2014-07-23 14:04:00,
2014-07-23 09:06:00,69.8,45.0,30.23,NE,38,1.0,3.0,41,0.00,,,0.00,0,Wunderground v.1.15,2014-07-23 14:06:00,
2014-07-23 09:07:00,69.8,45.0,30.23,NE,38,3.0,3.0,41,0.00,,,0.00,0,Wunderground v.1.15,2014-07-23 14:07:00,
2014-07-23 09:09:00,69.9,44.5,30.23,NE,38,1.0,3.0,40,0.00,,,0.00,0,Wunderground v.1.15,2014-07-23 14:09:00,
2014-07-23 09:11:00,70.1,44.6,30.23,NE,38,1.0,2.0,40,0.00,,,0.00,0,Wunderground v.1.15,2014-07-23 14:11:00,
2014-07-23 09:12:00,70.2,44.7,30.23,NE,38,0.0,2.0,40,0.00,,,0.00,0,Wunderground v.1.15,2014-07-23 14:12:00,
2014-07-23 09:14:00,70.3,44.2,30.23,North,11,0.0,3.0,39,0.00,,,0.00,0,Wunderground v.1.15,2014-07-23 14:14:00,
2014-07-23 09:17:00,70.3,43.5,30.24,NW,307,1.0,3.0,38,0.00,,,0.00,0,Wunderground v.1.15,2014-07-23 14:17:00,
2014-07-23 09:18:00,70.3,44.2,30.23,NW,307,1.0,3.0,39,0.00,,,0.00,0,Wunderground v.1.15,2014-07-23 14:18:00,
2014-07-23 09:19:00,70.1,43.3,30.24,NW,307,0.0,3.0,38,0.00,,,0.00,0,Wunderground v.1.15,2014-07-23 14:19:00,
2014-07-23 09:20:00,70.1,44.0,30.23,NW,307,0.0,0.0,39,0.00,,,0.00,0,Wunderground v.1.15,2014-07-23 14:20:00,
2014-07-23 09:22:00,70.1,44.6,30.23,NW,308,2.0,3.0,40,0.00,,,0.00,0,Wunderground v.1.15,2014-07-23 14:22:00,
2014-07-23 09:23:00,70.1,44.6,30.23,North,7,3.0,3.0,40,0.00,,,0.00,0,Wunderground v.1.15,2014-07-23 14:23:00,
2014-07-23 09:25:00,70.3,44.8,30.23,North,9,1.0,3.0,40,0.00,,,0.00,0,Wunderground v.1.15,2014-07-23 14:25:00,
2014-07-23 09:27:00,70.5,43.7,30.23,North,9,1.0,3.0,38,0.00,,,0.00,0,Wunderground v.1.15,2014-07-23 14:27:00,
2014-07-23 09:28:00,70.6,43.7,30.23,North,9,2.0,3.0,38,0.00,,,0.00,0,Wunderground v.1.15,2014-07-23 14:28:00,
2014-07-23 09:29:00,70.6,43.7,30.23,North,9,1.0,3.0,38,0.00,,,0.00,0,Wunderground v.1.15,2014-07-23 14:29:00,
2014-07-23 09:30:00,70.7,43.8,30.23,North,9,1.0,1.0,38,0.00,,,0.00,0,Wunderground v.1.15,2014-07-23 14:30:00,
2014-07-23 09:31:00,70.7,43.8,30.23,North,9,1.0,2.0,38,0.00,,,0.00,0,Wunderground v.1.15,2014-07-23 14:31:00,
2014-07-23 09:32:00,70.8,43.9,30.24,North,9,1.0,2.0,38,0.00,,,0.00,0,Wunderground v.1.15,2014-07-23 14:32:00,
2014-07-23 09:33:00,70.9,44.0,30.23,North,9,0.0,2.0,38,0.00,,,0.00,0,Wunderground v.1.15,2014-07-23 14:33:00,
2014-07-23 09:34:00,71.0,44.8,30.23,North,9,1.0,2.0,39,0.00,,,0.00,0,Wunderground v.1.15,2014-07-23 14:34:00,
2014-07-23 09:35:00,71.1,44.2,30.23,North,9,1.0,3.0,38,0.00,,,0.00,0,Wunderground v.1.15,2014-07-23 14:35:00,
2014-07-23 09:36:00,71.2,44.3,30.23,North,9,2.0,3.0,38,0.00,,,0.00,0,Wunderground v.1.15,2014-07-23 14:36:00,
2014-07-23 09:37:00,71.2,43.6,30.23,North,3,1.0,3.0,37,0.00,,,0.00,0,Wunderground v.1.15,2014-07-23 14:37:00,
2014-07-23 09:39:00,71.3,43.7,30.23,North,3,0.0,3.0,37,0.00,,,0.00,0,Wunderground v.1.15,2014-07-23 14:39:00,
2014-07-23 09:40:00,71.3,43.7,30.23,North,0,3.0,3.0,37,0.00,,,0.00,0,Wunderground v.1.15,2014-07-23 14:40:00,
2014-07-23 09:41:00,71.4,43.8,30.23,WNW,302,2.0,4.0,37,0.00,,,0.00,0,Wunderground v.1.15,2014-07-23 14:41:00,
2014-07-23 09:43:00,71.5,43.8,30.23,WNW,302,1.0,4.0,37,0.00,,,0.00,0,Wunderground v.1.15,2014-07-23 14:43:00,
2014-07-23 09:44:00,71.6,43.2,30.24,WNW,302,2.0,4.0,36,0.00,,,0.00,0,Wunderground v.1.15,2014-07-23 14:44:00,
2014-07-23 09:45:00,71.6,43.2,30.23,NW,316,1.0,4.0,36,0.00,,,0.00,0,Wunderground v.1.15,2014-07-23 14:45:00,
2014-07-23 09:46:00,71.7,42.6,30.24,NW,314,2.0,4.0,35,0.00,,,0.00,0,Wunderground v.1.15,2014-07-23 14:46:00,
2014-07-23 09:47:00,71.8,43.4,30.23,NW,307,1.0,4.0,36,0.00,,,0.00,0,Wunderground v.1.15,2014-07-23 14:47:00,
2014-07-23 09:48:00,71.8,41.9,30.23,NW,307,1.0,4.0,34,0.00,,,0.00,0,Wunderground v.1.15,2014-07-23 14:48:00,
2014-07-23 09:50:00,71.9,42.0,30.23,NW,307,0.0,0.0,34,0.00,,,0.00,0,Wunderground v.1.15,2014-07-23 14:50:00,
2014-07-23 09:51:00,72.0,42.1,30.23,NW,311,1.0,3.0,34,0.00,,,0.00,0,Wunderground v.1.15,2014-07-23 14:51:00,
2014-07-23 09:52:00,72.2,41.5,30.23,NW,318,2.0,3.0,33,0.00,,,0.00,0,Wunderground v.1.15,2014-07-23 14:52:00,
2014-07-23 09:53:00,72.2,41.5,30.22,NW,318,1.0,3.0,33,0.00,,,0.00,0,Wunderground v.1.15,2014-07-23 14:53:00,
2014-07-23 09:55:00,72.3,41.6,30.22,NNW,339,0.0,3.0,33,0.00,,,0.00,0,Wunderground v.1.15,2014-07-23 14:55:00,
2014-07-23 09:56:00,72.5,41.7,30.22,NNW,339,1.0,3.0,33,0.00,,,0.00,0,Wunderground v.1.15,2014-07-23 14:56:00,
2014-07-23 09:58:00,72.6,41.0,30.23,NNW,332,2.0,3.0,32,0.00,,,0.00,0,Wunderground v.1.15,2014-07-23 14:58:00,
2014-07-23 09:59:00,72.6,41.0,30.23,NNW,332,0.0,3.0,32,0.00,,,0.00,0,Wunderground v.1.15,2014-07-23 14:59:00,
2014-07-23 10:00:00,72.6,41.0,30.23,NNW,332,1.0,1.0,32,0.00,,,0.00,0,Wunderground v.1.15,2014-07-23 15:00:00,
2014-07-23 10:01:00,72.5,41.0,30.23,NNW,332,3.0,3.0,32,0.00,,,0.00,0,Wunderground v.1.15,2014-07-23 15:01:00,
2014-07-23 10:03:00,72.5,40.1,30.23,NNW,333,2.0,5.0,31,0.00,,,0.00,0,Wunderground v.1.15,2014-07-23 15:03:00,
2014-07-23 10:04:00,72.4,40.0,30.23,NNW,332,1.0,5.0,31,0.00,,,0.00,0,Wunderground v.1.15,2014-07-23 15:04:00,
2014-07-23 10:05:00,72.5,41.0,30.23,NNW,332,0.0,5.0,32,0.00,,,0.00,0,Wunderground v.1.15,2014-07-23 15:05:00,
2014-07-23 10:06:00,72.6,41.0,30.23,NNW,348,1.0,5.0,32,0.00,,,0.00,0,Wunderground v.1.15,2014-07-23 15:06:00,
2014-07-23 10:07:00,72.7,41.1,30.23,NNW,348,1.0,5.0,32,0.00,,,0.00,0,Wunderground v.1.15,2014-07-23 15:07:00,
2014-07-23 10:08:00,72.8,40.4,30.23,NNW,348,1.0,5.0,31,0.00,,,0.00,0,Wunderground v.1.15,2014-07-23 15:08:00,
2014-07-23 10:09:00,72.9,41.3,30.23,NNW,347,2.0,5.0,32,0.00,,,0.00,0,Wunderground v.1.15,2014-07-23 15:09:00,
2014-07-23 10:11:00,73.3,41.6,30.23,NNW,345,1.0,2.0,32,0.00,,,0.00,0,Wunderground v.1.15,2014-07-23 15:11:00,
2014-07-23 10:12:00,73.3,41.6,30.23,NNW,345,1.0,2.0,32,0.00,,,0.00,0,Wunderground v.1.15,2014-07-23 15:12:00,
2014-07-23 10:13:00,73.5,41.8,30.23,North,356,1.0,3.0,32,0.00,,,0.00,0,Wunderground v.1.15,2014-07-23 15:13:00,
2014-07-23 10:14:00,73.6,41.1,30.23,North,3,2.0,3.0,31,0.00,,,0.00,0,Wunderground v.1.15,2014-07-23 15:14:00,
2014-07-23 10:17:00,73.7,40.3,30.22,North,10,2.0,3.0,30,0.00,,,0.00,0,Wunderground v.1.15,2014-07-23 15:17:00,
2014-07-23 10:18:00,73.6,39.4,30.22,North,11,0.0,3.0,29,0.00,,,0.00,0,Wunderground v.1.15,2014-07-23 15:18:00,
2014-07-23 10:19:00,73.6,39.4,30.22,North,11,0.0,3.0,29,0.00,,,0.00,0,Wunderground v.1.15,2014-07-23 15:19:00,
2014-07-23 10:22:00,73.9,40.5,30.23,North,11,0.0,2.0,30,0.00,,,0.00,0,Wunderground v.1.15,2014-07-23 15:22:00,
2014-07-23 10:24:00,74.1,40.7,30.22,North,11,2.0,2.0,30,0.00,,,0.00,0,Wunderground v.1.15,2014-07-23 15:24:00,
2014-07-23 10:27:00,74.0,40.6,30.22,North,10,2.0,3.0,30,0.00,,,0.00,0,Wunderground v.1.15,2014-07-23 15:27:00,
2014-07-23 10:28:00,74.0,40.6,30.22,North,10,3.0,3.0,30,0.00,,,0.00,0,Wunderground v.1.15,2014-07-23 15:28:00,
2014-07-23 10:29:00,74.1,40.7,30.22,North,10,1.0,3.0,30,0.00,,,0.00,0,Wunderground v.1.15,2014-07-23 15:29:00,
2014-07-23 10:32:00,74.0,40.6,30.22,North,359,2.0,4.0,30,0.00,,,0.00,0,Wunderground v.1.15,2014-07-23 15:32:00,
2014-07-23 10:33:00,74.0,40.6,30.22,North,359,2.0,4.0,30,0.00,,,0.00,0,Wunderground v.1.15,2014-07-23 15:33:00,
2014-07-23 10:34:00,74.1,40.7,30.22,North,359,1.0,4.0,30,0.00,,,0.00,0,Wunderground v.1.15,2014-07-23 15:34:00,
2014-07-23 10:35:00,74.1,40.7,30.22,North,359,0.0,4.0,30,0.00,,,0.00,0,Wunderground v.1.15,2014-07-23 15:35:00,
2014-07-23 10:37:00,74.3,40.0,30.22,North,359,0.0,4.0,29,0.00,,,0.00,0,Wunderground v.1.15,2014-07-23 15:37:00,
2014-07-23 10:38:00,74.4,40.1,30.22,North,359,0.0,4.0,29,0.00,,,0.00,0,Wunderground v.1.15,2014-07-23 15:38:00,
2014-07-23 10:40:00,74.6,38.4,30.22,North,359,0.0,0.0,27,0.00,,,0.00,0,Wunderground v.1.15,2014-07-23 15:40:00,
2014-07-23 10:42:00,74.5,38.3,30.22,NNE,18,1.0,3.0,27,0.00,,,0.00,0,Wunderground v.1.15,2014-07-23 15:42:00,
2014-07-23 10:43:00,74.5,38.3,30.22,NNE,18,1.0,3.0,27,0.00,,,0.00,0,Wunderground v.1.15,2014-07-23 15:43:00,
2014-07-23 10:45:00,74.5,40.1,30.22,North,0,2.0,3.0,29,0.00,,,0.00,0,Wunderground v.1.15,2014-07-23 15:45:00,
2014-07-23 10:46:00,74.5,40.1,30.22,NNE,19,2.0,4.0,29,0.00,,,0.00,0,Wunderground v.1.15,2014-07-23 15:46:00,
2014-07-23 10:47:00,74.6,38.4,30.22,NNW,338,2.0,5.0,27,0.00,,,0.00,0,Wunderground v.1.15,2014-07-23 15:47:00,
2014-07-23 10:48:00,74.6,37.4,30.22,NNW,341,2.0,5.0,26,0.00,,,0.00,0,Wunderground v.1.15,2014-07-23 15:48:00,
2014-07-23 10:50:00,74.7,38.5,30.22,North,356,1.0,2.0,27,0.00,,,0.00,0,Wunderground v.1.15,2014-07-23 15:50:00,
2014-07-23 10:51:00,74.8,37.6,30.22,NE,39,3.0,4.0,26,0.00,,,0.00,0,Wunderground v.1.15,2014-07-23 15:51:00,
2014-07-23 10:52:00,74.9,37.7,30.22,NE,39,4.0,4.0,26,0.00,,,0.00,0,Wunderground v.1.15,2014-07-23 15:52:00,
2014-07-23 10:53:00,74.9,35.7,30.22,NE,39,0.0,4.0,24,0.00,,,0.00,0,Wunderground v.1.15,2014-07-23 15:53:00,
2014-07-23 10:55:00,74.9,37.7,30.21,NNW,332,3.0,5.0,26,0.00,,,0.00,0,Wunderground v.1.15,2014-07-23 15:55:00,
2014-07-23 10:56:00,74.8,35.6,30.21,NNW,333,0.0,5.0,24,0.00,,,0.00,0,Wunderground v.1.15,2014-07-23 15:56:00,
2014-07-23 10:57:00,74.8,35.6,30.22,NNW,333,0.0,5.0,24,0.00,,,0.00,0,Wunderground v.1.15,2014-07-23 15:57:00,
2014-07-23 10:58:00,74.8,35.6,30.22,NNW,333,0.0,5.0,24,0.00,,,0.00,0,Wunderground v.1.15,2014-07-23 15:58:00,
2014-07-23 10:59:00,74.8,36.6,30.21,NNW,333,0.0,5.0,25,0.00,,,0.00,0,Wunderground v.1.15,2014-07-23 15:59:00,
2014-07-23 11:00:00,74.9,37.7,30.22,NNW,333,0.0,1.0,26,0.00,,,0.00,0,Wunderground v.1.15,2014-07-23 16:00:00,
2014-07-23 11:01:00,75.1,37.9,30.22,NNW,333,0.0,1.0,26,0.00,,,0.00,0,Wunderground v.1.15,2014-07-23 16:01:00,
2014-07-23 11:02:00,75.3,39.0,30.21,North,0,3.0,3.0,27,0.00,,,0.00,0,Wunderground v.1.15,2014-07-23 16:02:00,
2014-07-23 11:03:00,75.4,38.1,30.22,North,0,1.0,3.0,26,0.00,,,0.00,0,Wunderground v.1.15,2014-07-23 16:03:00,
2014-07-23 11:04:00,75.4,36.1,30.22,North,0,0.0,3.0,24,0.00,,,0.00,0,Wunderground v.1.15,2014-07-23 16:04:00,
2014-07-23 11:05:00,75.4,37.1,30.21,North,0,1.0,3.0,25,0.00,,,0.00,0,Wunderground v.1.15,2014-07-23 16:05:00,
2014-07-23 11:07:00,75.3,37.0,30.21,North,0,2.0,3.0,25,0.00,,,0.00,0,Wunderground v.1.15,2014-07-23 16:07:00,
2014-07-23 11:08:00,75.3,38.0,30.22,North,0,2.0,3.0,26,0.00,,,0.00,0,Wunderground v.1.15,2014-07-23 16:08:00,
2014-07-23 11:09:00,75.4,38.1,30.22,North,357,2.0,3.0,26,0.00,,,0.00,0,Wunderground v.1.15,2014-07-23 16:09:00,
2014-07-23 11:10:00,75.4,38.1,30.22,WNW,296,2.0,4.0,26,0.00,,,0.00,0,Wunderground v.1.15,2014-07-23 16:10:00,
2014-07-23 11:12:00,75.3,38.0,30.22,WNW,296,2.0,4.0,26,0.00,,,0.00,0,Wunderground v.1.15,2014-07-23 16:12:00,
2014-07-23 11:13:00,75.1,37.9,30.22,WNW,293,2.0,4.0,26,0.00,,,0.00,0,Wunderground v.1.15,2014-07-23 16:13:00,
2014-07-23 11:14:00,74.9,37.7,30.22,WNW,293,0.0,4.0,26,0.00,,,0.00,0,Wunderground v.1.15,2014-07-23 16:14:00,
2014-07-23 11:15:00,74.9,37.7,30.22,WNW,293,0.0,4.0,26,0.00,,,0.00,0,Wunderground v.1.15,2014-07-23 16:15:00,
2014-07-23 11:18:00,74.7,39.4,30.22,WNW,293,1.0,4.0,28,0.00,,,0.00,0,Wunderground v.1.15,2014-07-23 16:18:00,
2014-07-23 11:19:00,74.7,40.3,30.22,WNW,293,3.0,4.0,29,0.00,,,0.00,0,Wunderground v.1.15,2014-07-23 16:19:00,
2014-07-23 11:20:00,74.9,40.5,30.22,WNW,293,1.0,2.0,29,0.00,,,0.00,0,Wunderground v.1.15,2014-07-23 16:20:00,
2014-07-23 11:21:00,75.0,39.7,30.22,North,359,1.0,3.0,28,0.00,,,0.00,0,Wunderground v.1.15,2014-07-23 16:21:00,
2014-07-23 11:24:00,75.3,38.0,30.22,WNW,293,0.0,4.0,26,0.00,,,0.00,0,Wunderground v.1.15,2014-07-23 16:24:00,
2014-07-23 11:25:00,75.3,38.0,30.22,West,277,3.0,4.0,26,0.00,,,0.00,0,Wunderground v.1.15,2014-07-23 16:25:00,
2014-07-23 11:26:00,75.3,36.0,30.22,West,277,1.0,4.0,24,0.00,,,0.00,0,Wunderground v.1.15,2014-07-23 16:26:00,
2014-07-23 11:29:00,75.4,38.1,30.23,West,277,2.0,4.0,26,0.00,,,0.00,0,Wunderground v.1.15,2014-07-23 16:29:00,
2014-07-23 11:30:00,75.4,37.1,30.22,West,277,1.0,1.0,25,0.00,,,0.00,0,Wunderground v.1.15,2014-07-23 16:30:00,
2014-07-23 11:31:00,75.3,37.0,30.23,West,277,2.0,4.0,25,0.00,,,0.00,0,Wunderground v.1.15,2014-07-23 16:31:00,
2014-07-23 11:34:00,74.9,35.7,30.22,NW,307,3.0,6.0,24,0.00,,,0.00,0,Wunderground v.1.15,2014-07-23 16:34:00,
2014-07-23 11:35:00,74.8,35.6,30.22,WNW,300,2.0,6.0,24,0.00,,,0.00,0,Wunderground v.1.15,2014-07-23 16:35:00,
2014-07-23 11:36:00,74.7,35.5,30.23,NW,324,2.0,6.0,24,0.00,,,0.00,0,Wunderground v.1.15,2014-07-23 16:36:00,
2014-07-23 11:39:00,74.9,37.7,30.22,West,270,2.0,6.0,26,0.00,,,0.00,0,Wunderground v.1.15,2014-07-23 16:39:00,
2014-07-23 11:40:00,75.0,37.8,30.22,West,263,6.0,6.0,26,0.00,,,0.00,0,Wunderground v.1.15,2014-07-23 16:40:00,
2014-07-23 11:41:00,75.1,36.9,30.23,NW,308,2.0,6.0,25,0.00,,,0.00,0,Wunderground v.1.15,2014-07-23 16:41:00,
2014-07-23 11:42:00,75.1,35.8,30.22,NW,307,0.0,6.0,24,0.00,,,0.00,0,Wunderground v.1.15,2014-07-23 16:42:00,
2014-07-23 11:45:00,75.2,36.9,30.22,West,277,3.0,6.0,25,0.00,,,0.00,0,Wunderground v.1.15,2014-07-23 16:45:00,
2014-07-23 11:46:00,75.2,36.9,30.22,West,273,1.0,6.0,25,0.00,,,0.00,0,Wunderground v.1.15,2014-07-23 16:46:00,
2014-07-23 11:48:00,75.4,37.1,30.22,WNW,285,4.0,6.0,25,0.00,,,0.00,0,Wunderground v.1.15,2014-07-23 16:48:00,
2014-07-23 11:51:00,75.6,34.1,30.23,NW,307,1.0,6.0,22,0.00,,,0.00,0,Wunderground v.1.15,2014-07-23 16:51:00,
2014-07-23 11:52:00,75.6,31.7,30.22,NW,316,4.0,6.0,20,0.00,,,0.00,0,Wunderground v.1.15,2014-07-23 16:52:00,
2014-07-23 11:53:00,75.5,31.6,30.22,West,275,2.0,6.0,20,0.00,,,0.00,0,Wunderground v.1.15,2014-07-23 16:53:00,
2014-07-23 11:56:00,75.4,33.9,30.22,West,275,1.0,6.0,22,0.00,,,0.00,0,Wunderground v.1.15,2014-07-23 16:56:00,
2014-07-23 11:57:00,75.4,33.9,30.23,West,275,4.0,6.0,22,0.00,,,0.00,0,Wunderground v.1.15,2014-07-23 16:57:00,
2014-07-23 11:59:00,75.4,32.7,30.22,West,266,4.0,6.0,21,0.00,,,0.00,0,Wunderground v.1.15,2014-07-23 16:59:00,
2014-07-23 12:01:00,75.3,32.6,30.22,West,267,2.0,5.0,21,0.00,,,0.00,0,Wunderground v.1.15,2014-07-23 17:01:00,
2014-07-23 12:02:00,75.3,32.6,30.22,West,265,1.0,5.0,21,0.00,,,0.00,0,Wunderground v.1.15,2014-07-23 17:02:00,
2014-07-23 12:03:00,75.4,33.9,30.22,West,265,3.0,5.0,22,0.00,,,0.00,0,Wunderground v.1.15,2014-07-23 17:03:00,
2014-07-23 12:05:00,75.4,33.9,30.22,SW,217,5.0,5.0,22,0.00,,,0.00,0,Wunderground v.1.15,2014-07-23 17:05:00,
2014-07-23 12:06:00,75.3,33.8,30.22,SSW,204,2.0,5.0,22,0.00,,,0.00,0,Wunderground v.1.15,2014-07-23 17:06:00,
2014-07-23 12:07:00,75.2,33.7,30.22,SSW,212,2.0,5.0,22,0.00,,,0.00,0,Wunderground v.1.15,2014-07-23 17:07:00,
2014-07-23 12:08:00,75.2,33.7,30.22,SSW,212,1.0,5.0,22,0.00,,,0.00,0,Wunderground v.1.15,2014-07-23 17:08:00,
2014-07-23 12:10:00,75.0,34.7,30.22,SW,234,2.0,3.0,23,0.00,,,0.00,0,Wunderground v.1.15,2014-07-23 17:10:00,
2014-07-23 12:12:00,74.9,35.7,30.22,WSW,254,2.0,3.0,24,0.00,,,0.00,0,Wunderground v.1.15,2014-07-23 17:12:00,
2014-07-23 12:14:00,74.8,35.6,30.22,NW,326,1.0,4.0,24,0.00,,,0.00,0,Wunderground v.1.15,2014-07-23 17:14:00,
2014-07-23 12:16:00,74.9,35.7,30.21,NNW,328,1.0,4.0,24,0.00,,,0.00,0,Wunderground v.1.15,2014-07-23 17:16:00,
2014-07-23 12:17:00,75.1,35.8,30.21,NNW,332,0.0,4.0,24,0.00,,,0.00,0,Wunderground v.1.15,2014-07-23 17:17:00,
2014-07-23 12:20:00,75.2,35.9,30.22,WSW,239,0.0,3.0,24,0.00,,,0.00,0,Wunderground v.1.15,2014-07-23 17:20:00,
2014-07-23 12:21:00,75.3,36.0,30.21,WSW,239,1.0,3.0,24,0.00,,,0.00,0,Wunderground v.1.15,2014-07-23 17:21:00,
2014-07-23 12:23:00,75.3,36.0,30.21,WSW,251,1.0,7.0,24,0.00,,,0.00,0,Wunderground v.1.15,2014-07-23 17:23:00,
2014-07-23 12:26:00,75.1,33.6,30.22,West,262,5.0,8.0,22,0.00,,,0.00,0,Wunderground v.1.15,2014-07-23 17:26:00,
2014-07-23 12:27:00,75.1,34.8,30.22,WSW,250,7.0,8.0,23,0.00,,,0.00,0,Wunderground v.1.15,2014-07-23 17:27:00,
2014-07-23 12:28:00,74.9,34.6,30.22,West,269,5.0,8.0,23,0.00,,,0.00,0,Wunderground v.1.15,2014-07-23 17:28:00,
2014-07-23 12:31:00,75.0,35.7,30.22,West,268,3.0,6.0,24,0.00,,,0.00,0,Wunderground v.1.15,2014-07-23 17:31:00,
2014-07-23 12:33:00,75.0,33.6,30.22,WSW,256,1.0,6.0,22,0.00,,,0.00,0,Wunderground v.1.15,2014-07-23 17:33:00,
2014-07-23 12:34:00,75.1,34.8,30.22,WSW,256,1.0,6.0,23,0.00,,,0.00,0,Wunderground v.1.15,2014-07-23 17:34:00,
2014-07-23 12:37:00,75.2,34.8,30.22,West,260,1.0,7.0,23,0.00,,,0.00,0,Wunderground v.1.15,2014-07-23 17:37:00,
2014-07-23 12:38:00,75.2,34.8,30.22,West,260,2.0,7.0,23,0.00,,,0.00,0,Wunderground v.1.15,2014-07-23 17:38:00,
2014-07-23 12:39:00,75.1,34.8,30.22,West,260,3.0,7.0,23,0.00,,,0.00,0,Wunderground v.1.15,2014-07-23 17:39:00,
2014-07-23 12:42:00,75.2,35.9,30.22,NW,325,2.0,5.0,24,0.00,,,0.00,0,Wunderground v.1.15,2014-07-23 17:42:00,
2014-07-23 12:43:00,75.2,34.8,30.22,NNE,17,2.0,5.0,23,0.00,,,0.00,0,Wunderground v.1.15,2014-07-23 17:43:00,
2014-07-23 12:44:00,75.3,34.9,30.22,NE,56,1.0,5.0,23,0.00,,,0.00,0,Wunderground v.1.15,2014-07-23 17:44:00,
2014-07-23 12:47:00,75.8,36.4,30.22,WNW,282,2.0,5.0,24,0.00,,,0.00,0,Wunderground v.1.15,2014-07-23 17:47:00,
2014-07-23 12:48:00,75.9,36.5,30.22,West,266,3.0,5.0,24,0.00,,,0.00,0,Wunderground v.1.15,2014-07-23 17:48:00,
2014-07-23 12:49:00,76.1,36.7,30.22,NNW,335,2.0,5.0,24,0.00,,,0.00,0,Wunderground v.1.15,2014-07-23 17:49:00,
2014-07-23 12:50:00,76.2,35.7,30.22,WNW,286,3.0,3.0,23,0.00,,,0.00,0,Wunderground v.1.15,2014-07-23 17:50:00,
2014-07-23 12:53:00,76.5,33.6,30.22,North,352,0.0,5.0,21,0.00,,,0.00,0,Wunderground v.1.15,2014-07-23 17:53:00,
2014-07-23 12:54:00,76.5,34.8,30.21,NNE,31,1.0,5.0,22,0.00,,,0.00,0,Wunderground v.1.15,2014-07-23 17:54:00,
2014-07-23 12:55:00,76.6,34.9,30.21,NNE,29,2.0,5.0,22,0.00,,,0.00,0,Wunderground v.1.15,2014-07-23 17:55:00,
2014-07-23 12:58:00,76.7,33.8,30.22,West,265,8.0,9.0,21,0.00,,,0.00,0,Wunderground v.1.15,2014-07-23 17:58:00,
2014-07-23 12:59:00,76.6,32.5,30.22,WSW,251,3.0,9.0,20,0.00,,,0.00,0,Wunderground v.1.15,2014-07-23 17:59:00,
2014-07-23 13:00:00,76.3,33.5,30.21,SW,222,5.0,5.0,21,0.00,,,0.00,0,Wunderground v.1.15,2014-07-23 18:00:00,
2014-07-23 13:01:00,76.1,33.3,30.21,SSW,211,3.0,6.0,21,0.00,,,0.00,0,Wunderground v.1.15,2014-07-23 18:01:00,
2014-07-23 13:03:00,75.9,33.1,30.21,SSW,211,0.0,6.0,21,0.00,,,0.00,0,Wunderground v.1.15,2014-07-23 18:03:00,
2014-07-23 13:04:00,75.8,33.1,30.21,SSW,211,1.0,6.0,21,0.00,,,0.00,0,Wunderground v.1.15,2014-07-23 18:04:00,
2014-07-23 13:05:00,75.9,35.4,30.22,SSW,212,1.0,6.0,23,0.00,,,0.00,0,Wunderground v.1.15,2014-07-23 18:05:00,
2014-07-23 13:06:00,76.0,34.4,30.21,SSW,211,1.0,6.0,22,0.00,,,0.00,0,Wunderground v.1.15,2014-07-23 18:06:00,
2014-07-23 13:08:00,76.2,34.6,30.21,SSW,211,0.0,6.0,22,0.00,,,0.00,0,Wunderground v.1.15,2014-07-23 18:08:00,
2014-07-23 13:09:00,76.2,34.6,30.21,SSW,211,0.0,6.0,22,0.00,,,0.00,0,Wunderground v.1.15,2014-07-23 18:09:00,
2014-07-23 13:10:00,76.2,34.6,30.21,SW,236,2.0,2.0,22,0.00,,,0.00,0,Wunderground v.1.15,2014-07-23 18:10:00,
2014-07-23 13:12:00,76.0,33.2,30.21,West,266,1.0,4.0,21,0.00,,,0.00,0,Wunderground v.1.15,2014-07-23 18:12:00,
2014-07-23 13:14:00,75.7,34.1,30.21,West,271,1.0,4.0,22,0.00,,,0.00,0,Wunderground v.1.15,2014-07-23 18:14:00,
2014-07-23 13:15:00,75.6,35.2,30.21,West,272,3.0,5.0,23,0.00,,,0.00,0,Wunderground v.1.15,2014-07-23 18:15:00,
2014-07-23 13:16:00,75.5,35.1,30.22,NW,308,3.0,5.0,23,0.00,,,0.00,0,Wunderground v.1.15,2014-07-23 18:16:00,
2014-07-23 13:18:00,75.3,36.0,30.22,West,260,2.0,6.0,24,0.00,,,0.00,0,Wunderground v.1.15,2014-07-23 18:18:00,
2014-07-23 13:19:00,75.2,35.9,30.21,West,260,2.0,6.0,24,0.00,,,0.00,0,Wunderground v.1.15,2014-07-23 18:19:00,
2014-07-23 13:20:00,75.1,35.8,30.21,West,260,2.0,2.0,24,0.00,,,0.00,0,Wunderground v.1.15,2014-07-23 18:20:00,
2014-07-23 13:21:00,75.0,35.7,30.21,West,260,2.0,3.0,24,0.00,,,0.00,0,Wunderground v.1.15,2014-07-23 18:21:00,
2014-07-23 13:24:00,74.8,35.6,30.21,West,260,1.0,5.0,24,0.00,,,0.00,0,Wunderground v.1.15,2014-07-23 18:24:00,
2014-07-23 13:25:00,74.9,35.7,30.22,West,260,3.0,5.0,24,0.00,,,0.00,0,Wunderground v.1.15,2014-07-23 18:25:00,
2014-07-23 13:26:00,74.9,35.7,30.21,WSW,257,2.0,5.0,24,0.00,,,0.00,0,Wunderground v.1.15,2014-07-23 18:26:00,
2014-07-23 13:30:00,75.5,35.1,30.21,WSW,256,3.0,4.0,23,0.00,,,0.00,0,Wunderground v.1.15,2014-07-23 18:30:00,
2014-07-23 13:31:00,75.7,35.3,30.22,West,259,4.0,4.0,23,0.00,,,0.00,0,Wunderground v.1.15,2014-07-23 18:31:00,
2014-07-23 13:35:00,76.0,34.4,30.21,WNW,290,2.0,7.0,22,0.00,,,0.00,0,Wunderground v.1.15,2014-07-23 18:35:00,
2014-07-23 13:36:00,76.0,34.4,30.22,WNW,293,2.0,7.0,22,0.00,,,0.00,0,Wunderground v.1.15,2014-07-23 18:36:00,
2014-07-23 13:37:00,76.2,34.6,30.21,North,357,2.0,7.0,22,0.00,,,0.00,0,Wunderground v.1.15,2014-07-23 18:37:00,
2014-07-23 13:40:00,76.1,33.3,30.21,North,350,3.0,3.0,21,0.00,,,0.00,0,Wunderground v.1.15,2014-07-23 18:40:00,
2014-07-23 13:41:00,76.1,34.5,30.21,NNE,17,1.0,3.0,22,0.00,,,0.00,0,Wunderground v.1.15,2014-07-23 18:41:00,
2014-07-23 13:42:00,76.1,34.5,30.22,NNE,17,2.0,3.0,22,0.00,,,0.00,0,Wunderground v.1.15,2014-07-23 18:42:00,
2014-07-23 13:46:00,76.5,37.0,30.21,SSW,200,1.0,4.0,24,0.00,,,0.00,0,Wunderground v.1.15,2014-07-23 18:46:00,
2014-07-23 13:47:00,76.6,33.7,30.20,West,270,2.0,5.0,21,0.00,,,0.00,0,Wunderground v.1.15,2014-07-23 18:47:00,
2014-07-23 13:51:00,77.0,35.2,30.21,NW,310,1.0,3.0,22,0.00,,,0.00,0,Wunderground v.1.15,2014-07-23 18:51:00,
2014-07-23 13:52:00,77.2,34.2,30.21,North,0,1.0,3.0,21,0.00,,,0.00,0,Wunderground v.1.15,2014-07-23 18:52:00,
2014-07-23 13:53:00,77.2,34.2,30.21,North,0,1.0,3.0,21,0.00,,,0.00,0,Wunderground v.1.15,2014-07-23 18:53:00,
2014-07-23 13:56:00,77.3,33.1,30.20,West,273,3.0,6.0,20,0.00,,,0.00,0,Wunderground v.1.15,2014-07-23 18:56:00,
2014-07-23 13:57:00,77.0,35.2,30.21,WNW,294,1.0,6.0,22,0.00,,,0.00,0,Wunderground v.1.15,2014-07-23 18:57:00,
2014-07-23 13:58:00,77.0,35.2,30.20,WNW,289,3.0,6.0,22,0.00,,,0.00,0,Wunderground v.1.15,2014-07-23 18:58:00,
2014-07-23 14:01:00,76.4,34.7,30.21,North,359,2.0,3.0,22,0.00,,,0.00,0,Wunderground v.1.15,2014-07-23 19:01:00,
2014-07-23 14:03:00,76.1,34.5,30.21,WNW,293,2.0,4.0,22,0.00,,,0.00,0,Wunderground v.1.15,2014-07-23 19:03:00,
2014-07-23 14:04:00,76.0,34.4,30.20,West,269,5.0,5.0,22,0.00,,,0.00,0,Wunderground v.1.15,2014-07-23 19:04:00,
2014-07-23 14:07:00,76.1,34.5,30.21,West,260,1.0,6.0,22,0.00,,,0.00,0,Wunderground v.1.15,2014-07-23 19:07:00,
2014-07-23 14:08:00,76.1,34.5,30.21,WSW,258,2.0,6.0,22,0.00,,,0.00,0,Wunderground v.1.15,2014-07-23 19:08:00,
2014-07-23 14:09:00,76.2,33.4,30.21,WSW,253,1.0,7.0,21,0.00,,,0.00,0,Wunderground v.1.15,2014-07-23 19:09:00,
2014-07-23 14:12:00,76.4,34.7,30.21,West,277,3.0,5.0,22,0.00,,,0.00,0,Wunderground v.1.15,2014-07-23 19:12:00,
2014-07-23 14:13:00,76.5,33.6,30.21,NW,325,3.0,5.0,21,0.00,,,0.00,0,Wunderground v.1.15,2014-07-23 19:13:00,
2014-07-23 14:14:00,76.5,33.6,30.21,NW,325,2.0,5.0,21,0.00,,,0.00,0,Wunderground v.1.15,2014-07-23 19:14:00,
2014-07-23 14:15:00,76.6,34.9,30.21,West,262,3.0,6.0,22,0.00,,,0.00,0,Wunderground v.1.15,2014-07-23 19:15:00,
2014-07-23 14:17:00,76.7,33.8,30.21,West,269,0.0,6.0,21,0.00,,,0.00,0,Wunderground v.1.15,2014-07-23 19:17:00,
2014-07-23 14:18:00,76.7,33.8,30.20,West,265,2.0,6.0,21,0.00,,,0.00,0,Wunderground v.1.15,2014-07-23 19:18:00,
2014-07-23 14:19:00,76.7,33.8,30.21,West,265,1.0,6.0,21,0.00,,,0.00,0,Wunderground v.1.15,2014-07-23 19:19:00,
2014-07-23 14:21:00,76.7,35.0,30.21,West,265,1.0,2.0,22,0.00,,,0.00,0,Wunderground v.1.15,2014-07-23 19:21:00,
2014-07-23 14:22:00,76.7,35.0,30.21,West,265,5.0,6.0,22,0.00,,,0.00,0,Wunderground v.1.15,2014-07-23 19:22:00,
2014-07-23 14:23:00,76.7,33.8,30.21,WSW,255,2.0,7.0,21,0.00,,,0.00,0,Wunderground v.1.15,2014-07-23 19:23:00,
2014-07-23 14:24:00,76.7,33.8,30.21,WSW,255,1.0,7.0,21,0.00,,,0.00,0,Wunderground v.1.15,2014-07-23 19:24:00,
2014-07-23 14:26:00,76.6,32.5,30.20,WNW,300,0.0,7.0,20,0.00,,,0.00,0,Wunderground v.1.15,2014-07-23 19:26:00,
2014-07-23 14:28:00,76.7,35.0,30.21,WSW,255,2.0,7.0,22,0.00,,,0.00,0,Wunderground v.1.15,2014-07-23 19:28:00,
2014-07-23 14:29:00,76.8,32.7,30.21,West,263,4.0,7.0,20,0.00,,,0.00,0,Wunderground v.1.15,2014-07-23 19:29:00,
2014-07-23 14:31:00,76.8,33.9,30.21,WNW,288,1.0,4.0,21,0.00,,,0.00,0,Wunderground v.1.15,2014-07-23 19:31:00,
2014-07-23 14:33:00,77.1,34.1,30.20,WNW,287,1.0,4.0,21,0.00,,,0.00,0,Wunderground v.1.15,2014-07-23 19:33:00,
2014-07-23 14:34:00,77.2,33.0,30.21,WNW,285,1.0,4.0,20,0.00,,,0.00,0,Wunderground v.1.15,2014-07-23 19:34:00,
2014-07-23 14:35:00,77.4,34.4,30.21,West,281,2.0,4.0,21,0.00,,,0.00,0,Wunderground v.1.15,2014-07-23 19:35:00,
2014-07-23 14:37:00,77.8,33.5,30.20,WNW,285,2.0,5.0,20,0.00,,,0.00,0,Wunderground v.1.15,2014-07-23 19:37:00,
2014-07-23 14:38:00,77.9,33.6,30.20,WNW,285,0.0,5.0,20,0.00,,,0.00,0,Wunderground v.1.15,2014-07-23 19:38:00,
2014-07-23 14:39:00,77.9,34.8,30.20,SW,216,4.0,5.0,21,0.00,,,0.00,0,Wunderground v.1.15,2014-07-23 19:39:00,
2014-07-23 14:40:00,78.0,34.9,30.20,SSW,208,3.0,3.0,21,0.00,,,0.00,0,Wunderground v.1.15,2014-07-23 19:40:00,
2014-07-23 14:43:00,78.2,35.0,30.20,WNW,283,3.0,7.0,21,0.00,,,0.00,0,Wunderground v.1.15,2014-07-23 19:43:00,
2014-07-23 14:44:00,78.2,36.2,30.20,West,280,1.0,7.0,22,0.00,,,0.00,0,Wunderground v.1.15,2014-07-23 19:44:00,
2014-07-23 14:45:00,78.3,37.4,30.20,NW,325,2.0,7.0,23,0.00,,,0.00,0,Wunderground v.1.15,2014-07-23 19:45:00,
2014-07-23 14:48:00,78.2,33.8,30.20,West,265,7.0,7.0,20,0.00,,,0.00,0,Wunderground v.1.15,2014-07-23 19:48:00,
2014-07-23 14:50:00,78.3,33.9,30.20,West,259,6.0,6.0,20,0.00,,,0.00,0,Wunderground v.1.15,2014-07-23 19:50:00,
2014-07-23 14:51:00,78.3,32.6,30.20,West,276,2.0,8.0,19,0.00,,,0.00,0,Wunderground v.1.15,2014-07-23 19:51:00,
2014-07-23 14:54:00,78.1,32.5,30.20,WSW,258,3.0,8.0,19,0.00,,,0.00,0,Wunderground v.1.15,2014-07-23 19:54:00,
2014-07-23 14:55:00,77.9,31.0,30.20,West,261,2.0,8.0,18,0.00,,,0.00,0,Wunderground v.1.15,2014-07-23 19:55:00,
2014-07-23 14:57:00,77.5,30.6,30.19,West,261,1.0,8.0,18,0.00,,,0.00,0,Wunderground v.1.15,2014-07-23 19:57:00,
2014-07-23 14:59:00,77.4,31.9,30.20,West,259,3.0,8.0,19,0.00,,,0.00,0,Wunderground v.1.15,2014-07-23 19:59:00,
2014-07-23 15:00:00,77.5,33.2,30.19,West,259,3.0,3.0,20,0.00,,,0.00,0,Wunderground v.1.15,2014-07-23 20:00:00,
2014-07-23 15:01:00,77.6,34.6,30.20,West,259,2.0,4.0,21,0.00,,,0.00,0,Wunderground v.1.15,2014-07-23 20:01:00,
2014-07-23 15:02:00,77.9,34.8,30.20,West,270,1.0,4.0,21,0.00,,,0.00,0,Wunderground v.1.15,2014-07-23 20:02:00,
2014-07-23 15:04:00,78.2,32.5,30.19,WNW,300,2.0,5.0,19,0.00,,,0.00,0,Wunderground v.1.15,2014-07-23 20:04:00,
2014-07-23 15:05:00,78.3,31.3,30.20,WNW,295,3.0,5.0,18,0.00,,,0.00,0,Wunderground v.1.15,2014-07-23 20:05:00,
2014-07-23 15:06:00,78.3,31.3,30.20,North,0,3.0,5.0,18,0.00,,,0.00,0,Wunderground v.1.15,2014-07-23 20:06:00,
2014-07-23 15:07:00,78.3,31.3,30.19,NW,326,2.0,6.0,18,0.00,,,0.00,0,Wunderground v.1.15,2014-07-23 20:07:00,
2014-07-23 15:09:00,78.1,33.7,30.20,NW,311,4.0,6.0,20,0.00,,,0.00,0,Wunderground v.1.15,2014-07-23 20:09:00,
2014-07-23 15:10:00,78.1,31.1,30.19,WNW,300,1.0,3.0,18,0.00,,,0.00,0,Wunderground v.1.15,2014-07-23 20:10:00,
2014-07-23 15:11:00,78.0,31.0,30.20,NW,309,2.0,3.0,18,0.00,,,0.00,0,Wunderground v.1.15,2014-07-23 20:11:00,
2014-07-23 15:12:00,78.0,33.7,30.19,NW,310,2.0,3.0,20,0.00,,,0.00,0,Wunderground v.1.15,2014-07-23 20:12:00,
2014-07-23 15:15:00,78.2,33.8,30.19,NNW,337,1.0,5.0,20,0.00,,,0.00,0,Wunderground v.1.15,2014-07-23 20:15:00,
2014-07-23 15:16:00,78.3,33.9,30.19,NW,309,3.0,5.0,20,0.00,,,0.00,0,Wunderground v.1.15,2014-07-23 20:16:00,
2014-07-23 15:17:00,78.4,34.0,30.20,WSW,257,7.0,7.0,20,0.00,,,0.00,0,Wunderground v.1.15,2014-07-23 20:17:00,
2014-07-23 15:20:00,78.1,33.7,30.19,West,278,2.0,2.0,20,0.00,,,0.00,0,Wunderground v.1.15,2014-07-23 20:20:00,
2014-07-23 15:21:00,78.1,33.7,30.20,North,3,5.0,7.0,20,0.00,,,0.00,0,Wunderground v.1.15,2014-07-23 20:21:00,
2014-07-23 15:22:00,78.1,33.7,30.19,NNW,344,2.0,7.0,20,0.00,,,0.00,0,Wunderground v.1.15,2014-07-23 20:22:00,
2014-07-23 15:23:00,78.1,33.7,30.19,North,0,3.0,7.0,20,0.00,,,0.00,0,Wunderground v.1.15,2014-07-23 20:23:00,
2014-07-23 15:25:00,78.4,34.0,30.19,WNW,299,3.0,7.0,20,0.00,,,0.00,0,Wunderground v.1.15,2014-07-23 20:25:00,
2014-07-23 15:26:00,78.4,32.7,30.19,WSW,242,7.0,9.0,19,0.00,,,0.00,0,Wunderground v.1.15,2014-07-23 20:26:00,
2014-07-23 15:27:00,78.2,31.2,30.19,WSW,257,2.0,9.0,18,0.00,,,0.00,0,Wunderground v.1.15,2014-07-23 20:27:00,
2014-07-23 15:28:00,78.2,31.2,30.19,West,275,3.0,9.0,18,0.00,,,0.00,0,Wunderground v.1.15,2014-07-23 20:28:00,
2014-07-23 15:30:00,78.0,32.4,30.19,West,267,3.0,5.0,19,0.00,,,0.00,0,Wunderground v.1.15,2014-07-23 20:30:00,
2014-07-23 15:31:00,78.0,33.7,30.19,WSW,251,8.0,8.0,20,0.00,,,0.00,0,Wunderground v.1.15,2014-07-23 20:31:00,
2014-07-23 15:33:00,78.0,31.0,30.19,West,261,2.0,8.0,18,0.00,,,0.00,0,Wunderground v.1.15,2014-07-23 20:33:00,
2014-07-23 15:35:00,77.7,30.8,30.19,West,263,3.0,8.0,18,0.00,,,0.00,0,Wunderground v.1.15,2014-07-23 20:35:00,
2014-07-23 15:37:00,77.4,30.5,30.19,WSW,254,4.0,8.0,18,0.00,,,0.00,0,Wunderground v.1.15,2014-07-23 20:37:00,
2014-07-23 15:38:00,77.2,30.4,30.19,WSW,254,2.0,8.0,18,0.00,,,0.00,0,Wunderground v.1.15,2014-07-23 20:38:00,
2014-07-23 15:39:00,77.0,31.6,30.19,West,263,4.0,8.0,19,0.00,,,0.00,0,Wunderground v.1.15,2014-07-23 20:39:00,
2014-07-23 15:40:00,76.9,31.5,30.19,West,273,3.0,4.0,19,0.00,,,0.00,0,Wunderground v.1.15,2014-07-23 20:40:00,
2014-07-23 15:42:00,76.9,32.8,30.19,WNW,291,2.0,4.0,20,0.00,,,0.00,0,Wunderground v.1.15,2014-07-23 20:42:00,
2014-07-23 15:43:00,76.9,32.8,30.19,WNW,291,3.0,4.0,20,0.00,,,0.00,0,Wunderground v.1.15,2014-07-23 20:43:00,
2014-07-23 15:44:00,77.0,34.1,30.19,NNW,328,5.0,6.0,21,0.00,,,0.00,0,Wunderground v.1.15,2014-07-23 20:44:00,
2014-07-23 15:45:00,77.2,33.0,30.19,NNW,328,0.0,6.0,20,0.00,,,0.00,0,Wunderground v.1.15,2014-07-23 20:45:00,
2014-07-23 15:47:00,77.4,33.2,30.19,NNW,344,3.0,6.0,20,0.00,,,0.00,0,Wunderground v.1.15,2014-07-23 20:47:00,
2014-07-23 15:48:00,77.4,34.4,30.19,NNW,336,3.0,6.0,21,0.00,,,0.00,0,Wunderground v.1.15,2014-07-23 20:48:00,
2014-07-23 15:49:00,77.5,33.2,30.19,NW,325,2.0,6.0,20,0.00,,,0.00,0,Wunderground v.1.15,2014-07-23 20:49:00,
2014-07-23 15:50:00,77.5,33.2,30.19,North,358,2.0,3.0,20,0.00,,,0.00,0,Wunderground v.1.15,2014-07-23 20:50:00,
2014-07-23 15:51:00,77.5,33.2,30.19,North,358,1.0,3.0,20,0.00,,,0.00,0,Wunderground v.1.15,2014-07-23 20:51:00,
2014-07-23 15:52:00,77.6,33.3,30.18,NNW,338,1.0,3.0,20,0.00,,,0.00,0,Wunderground v.1.15,2014-07-23 20:52:00,
2014-07-23 15:53:00,77.6,33.3,30.19,NNW,338,0.0,3.0,20,0.00,,,0.00,0,Wunderground v.1.15,2014-07-23 20:53:00,
2014-07-23 15:54:00,77.6,34.6,30.19,NW,318,1.0,3.0,21,0.00,,,0.00,0,Wunderground v.1.15,2014-07-23 20:54:00,
2014-07-23 15:56:00,77.7,33.4,30.19,NNW,327,3.0,4.0,20,0.00,,,0.00,0,Wunderground v.1.15,2014-07-23 20:56:00,
2014-07-23 15:57:00,77.7,33.4,30.19,WNW,289,3.0,6.0,20,0.00,,,0.00,0,Wunderground v.1.15,2014-07-23 20:57:00,
2014-07-23 15:58:00,77.7,33.4,30.19,WNW,296,3.0,6.0,20,0.00,,,0.00,0,Wunderground v.1.15,2014-07-23 20:58:00,
2014-07-23 15:59:00,77.7,33.4,30.19,WNW,296,0.0,6.0,20,0.00,,,0.00,0,Wunderground v.1.15,2014-07-23 20:59:00,
2014-07-23 16:00:00,77.6,34.6,30.19,WNW,296,1.0,2.0,21,0.00,,,0.00,0,Wunderground v.1.15,2014-07-23 21:00:00,
2014-07-23 16:01:00,77.5,33.2,30.19,WNW,296,2.0,3.0,20,0.00,,,0.00,0,Wunderground v.1.15,2014-07-23 21:01:00,
2014-07-23 16:02:00,77.4,33.2,30.18,WNW,296,2.0,3.0,20,0.00,,,0.00,0,Wunderground v.1.15,2014-07-23 21:02:00,
2014-07-23 16:04:00,77.2,33.0,30.18,NW,319,1.0,3.0,20,0.00,,,0.00,0,Wunderground v.1.15,2014-07-23 21:04:00,
2014-07-23 16:05:00,77.2,35.4,30.19,West,261,2.0,5.0,22,0.00,,,0.00,0,Wunderground v.1.15,2014-07-23 21:05:00,
2014-07-23 16:07:00,76.9,34.0,30.19,West,259,4.0,6.0,21,0.00,,,0.00,0,Wunderground v.1.15,2014-07-23 21:07:00,
2014-07-23 16:10:00,76.7,33.8,30.18,West,268,2.0,2.0,21,0.00,,,0.00,0,Wunderground v.1.15,2014-07-23 21:10:00,
2014-07-23 16:11:00,76.7,32.6,30.18,West,267,1.0,2.0,20,0.00,,,0.00,0,Wunderground v.1.15,2014-07-23 21:11:00,
2014-07-23 16:12:00,76.7,33.8,30.19,West,268,0.0,3.0,21,0.00,,,0.00,0,Wunderground v.1.15,2014-07-23 21:12:00,
2014-07-23 16:13:00,76.7,35.0,30.18,NW,312,3.0,4.0,22,0.00,,,0.00,0,Wunderground v.1.15,2014-07-23 21:13:00,
2014-07-23 16:15:00,76.9,34.0,30.18,WSW,251,5.0,7.0,21,0.00,,,0.00,0,Wunderground v.1.15,2014-07-23 21:15:00,
2014-07-23 16:16:00,76.8,35.1,30.18,WSW,255,3.0,7.0,22,0.00,,,0.00,0,Wunderground v.1.15,2014-07-23 21:16:00,
2014-07-23 16:17:00,76.9,35.1,30.18,WSW,255,3.0,7.0,22,0.00,,,0.00,0,Wunderground v.1.15,2014-07-23 21:17:00,
2014-07-23 16:18:00,76.8,35.1,30.18,West,260,1.0,7.0,22,0.00,,,0.00,0,Wunderground v.1.15,2014-07-23 21:18:00,
2014-07-23 16:20:00,76.9,35.1,30.18,West,259,3.0,5.0,22,0.00,,,0.00,0,Wunderground v.1.15,2014-07-23 21:20:00,
2014-07-23 16:22:00,76.9,35.1,30.18,West,269,2.0,5.0,22,0.00,,,0.00,0,Wunderground v.1.15,2014-07-23 21:22:00,
2014-07-23 16:23:00,76.9,35.1,30.18,West,269,1.0,5.0,22,0.00,,,0.00,0,Wunderground v.1.15,2014-07-23 21:23:00,
2014-07-23 16:24:00,76.9,35.1,30.18,West,269,2.0,5.0,22,0.00,,,0.00,0,Wunderground v.1.15,2014-07-23 21:24:00,
2014-07-23 16:26:00,77.0,35.2,30.18,NNW,343,3.0,5.0,22,0.00,,,0.00,0,Wunderground v.1.15,2014-07-23 21:26:00,
2014-07-23 16:27:00,77.0,31.6,30.18,North,357,4.0,5.0,19,0.00,,,0.00,0,Wunderground v.1.15,2014-07-23 21:27:00,
2014-07-23 16:28:00,77.0,32.8,30.18,North,359,2.0,5.0,20,0.00,,,0.00,0,Wunderground v.1.15,2014-07-23 21:28:00,
2014-07-23 16:29:00,77.0,32.8,30.18,North,359,3.0,5.0,20,0.00,,,0.00,0,Wunderground v.1.15,2014-07-23 21:29:00,
2014-07-23 16:31:00,77.1,34.1,30.18,North,359,2.0,3.0,21,0.00,,,0.00,0,Wunderground v.1.15,2014-07-23 21:31:00,
2014-07-23 16:32:00,77.2,35.4,30.18,NNW,345,2.0,3.0,22,0.00,,,0.00,0,Wunderground v.1.15,2014-07-23 21:32:00,
2014-07-23 16:34:00,77.2,34.2,30.18,NNW,333,1.0,3.0,21,0.00,,,0.00,0,Wunderground v.1.15,2014-07-23 21:34:00,
2014-07-23 16:36:00,77.2,33.0,30.17,WNW,287,1.0,4.0,20,0.00,,,0.00,0,Wunderground v.1.15,2014-07-23 21:36:00,
2014-07-23 16:37:00,77.3,33.1,30.18,WNW,287,0.0,4.0,20,0.00,,,0.00,0,Wunderground v.1.15,2014-07-23 21:37:00,
2014-07-23 16:39:00,77.3,33.1,30.17,WNW,287,1.0,4.0,20,0.00,,,0.00,0,Wunderground v.1.15,2014-07-23 21:39:00,
2014-07-23 16:41:00,77.4,33.2,30.18,North,352,5.0,5.0,20,0.00,,,0.00,0,Wunderground v.1.15,2014-07-23 21:41:00,
2014-07-23 16:43:00,77.4,31.9,30.18,NW,307,4.0,5.0,19,0.00,,,0.00,0,Wunderground v.1.15,2014-07-23 21:43:00,
2014-07-23 16:45:00,77.4,31.9,30.18,West,270,3.0,7.0,19,0.00,,,0.00,0,Wunderground v.1.15,2014-07-23 21:45:00,
2014-07-23 16:46:00,77.3,33.1,30.18,West,281,1.0,7.0,20,0.00,,,0.00,0,Wunderground v.1.15,2014-07-23 21:46:00,
2014-07-23 16:47:00,77.4,34.4,30.18,West,280,2.0,7.0,21,0.00,,,0.00,0,Wunderground v.1.15,2014-07-23 21:47:00,
2014-07-23 16:48:00,77.4,33.2,30.17,West,280,2.0,7.0,20,0.00,,,0.00,0,Wunderground v.1.15,2014-07-23 21:48:00,
2014-07-23 16:50:00,77.5,33.2,30.17,WNW,296,2.0,3.0,20,0.00,,,0.00,0,Wunderground v.1.15,2014-07-23 21:50:00,
2014-07-23 16:52:00,77.4,30.5,30.17,WNW,302,1.0,4.0,18,0.00,,,0.00,0,Wunderground v.1.15,2014-07-23 21:52:00,